Wetterdaten: Dienstag, 05.03.2019
Datum Zeit Temp. Aussen Temp. o. S. +5cm Feuchte Auss Luftdruck Regen Sonnenschein Regendauer Solar Windben Empfang
05.03.2019 00:00 6,3 C 6,1 C 5,0 C 88 % 999,7 hPa 0,0 l/m 0 min 0 min 0 W/m 19,3 km/h (3 Bft) 93,62 %
05.03.2019 00:02 6,3 C 6,1 C 5,0 C 88 % 999,8 hPa 0,0 l/m 0 min 0 min 0 W/m 12,9 km/h (3 Bft) 95,35 %
05.03.2019 00:04 6,3 C 6,1 C 5,0 C 88 % 999,8 hPa 0,0 l/m 0 min 0 min 0 W/m 12,9 km/h (3 Bft) 93,62 %
05.03.2019 00:07 6,4 C 6,1 C 5,0 C 88 % 999,8 hPa 0,0 l/m 0 min 0 min 0 W/m 32,2 km/h (5 Bft) 98,57 %
05.03.2019 00:08 6,4 C 6,1 C 5,0 C 88 % 999,8 hPa 0,0 l/m 0 min 0 min 0 W/m 16,1 km/h (3 Bft) 95,83 %
05.03.2019 00:10 6,4 C 6,1 C 5,0 C 88 % 999,8 hPa 0,0 l/m 0 min 0 min 0 W/m 16,1 km/h (3 Bft) 93,62 %
05.03.2019 00:12 6,4 C 5,6 C 5,0 C 87 % 999,8 hPa 0,0 l/m 0 min 0 min 0 W/m 16,1 km/h (3 Bft) 95,74 %
05.03.2019 00:14 6,4 C 5,6 C 5,0 C 87 % 999,9 hPa 0,0 l/m 0 min 0 min 0 W/m 19,3 km/h (3 Bft) 95,65 %
05.03.2019 00:16 6,4 C 5,6 C 5,0 C 87 % 999,8 hPa 0,0 l/m 0 min 0 min 0 W/m 9,7 km/h (2 Bft) 97,87 %
05.03.2019 00:18 6,4 C 5,6 C 5,0 C 87 % 999,8 hPa 0,0 l/m 0 min 0 min 0 W/m 16,1 km/h (3 Bft) 95,74 %
05.03.2019 00:20 6,4 C 5,6 C 5,0 C 87 % 999,9 hPa 0,0 l/m 0 min 0 min 0 W/m 29,0 km/h (5 Bft) 93,62 %
05.03.2019 00:22 6,4 C 5,6 C 5,0 C 87 % 999,9 hPa 0,0 l/m 0 min 0 min 0 W/m 19,3 km/h (3 Bft) 95,74 %
05.03.2019 00:24 6,3 C 5,6 C 5,0 C 87 % 999,9 hPa 0,0 l/m 0 min 0 min 0 W/m 25,7 km/h (4 Bft) 93,48 %
05.03.2019 00:26 6,3 C 5,6 C 5,0 C 87 % 999,9 hPa 0,0 l/m 0 min 0 min 0 W/m 25,7 km/h (4 Bft) 95,74 %
05.03.2019 00:28 6,3 C 5,6 C 5,0 C 86 % 999,8 hPa 0,0 l/m 0 min 0 min 0 W/m 16,1 km/h (3 Bft) 95,74 %
05.03.2019 00:30 6,3 C 5,6 C 5,0 C 86 % 999,8 hPa 0,0 l/m 0 min 0 min 0 W/m 16,1 km/h (3 Bft) 95,74 %
05.03.2019 00:32 6,3 C 5,6 C 5,0 C 86 % 999,8 hPa 0,0 l/m 0 min 0 min 0 W/m 29,0 km/h (5 Bft) 95,74 %
05.03.2019 00:34 6,3 C 5,6 C 5,0 C 86 % 999,8 hPa 0,0 l/m 0 min 0 min 0 W/m 29,0 km/h (5 Bft) 95,74 %
05.03.2019 00:36 6,3 C 5,6 C 5,0 C 86 % 999,9 hPa 0,0 l/m 0 min 0 min 0 W/m 32,2 km/h (5 Bft) 95,65 %
05.03.2019 00:38 6,3 C 5,6 C 5,0 C 86 % 999,8 hPa 0,0 l/m 0 min 0 min 0 W/m 22,5 km/h (4 Bft) 91,49 %
05.03.2019 00:40 6,3 C 5,6 C 5,0 C 86 % 999,9 hPa 0,0 l/m 0 min 0 min 0 W/m 16,1 km/h (3 Bft) 95,74 %
05.03.2019 00:42 6,3 C 5,6 C 5,0 C 86 % 999,9 hPa 0,0 l/m 0 min 0 min 0 W/m 16,1 km/h (3 Bft) 95,74 %
05.03.2019 00:44 6,2 C 5,6 C 5,0 C 85 % 999,8 hPa 0,0 l/m 0 min 0 min 0 W/m 12,9 km/h (3 Bft) 97,87 %
05.03.2019 00:46 6,2 C 5,6 C 5,0 C 85 % 999,9 hPa 0,0 l/m 0 min 0 min 0 W/m 19,3 km/h (3 Bft) 95,74 %
05.03.2019 00:48 6,2 C 5,6 C 5,0 C 85 % 999,9 hPa 0,0 l/m 0 min 0 min 0 W/m 16,1 km/h (3 Bft) 97,83 %
05.03.2019 00:50 6,2 C 5,6 C 5,0 C 85 % 999,9 hPa 0,0 l/m 0 min 0 min 0 W/m 29,0 km/h (5 Bft) 97,87 %
05.03.2019 00:52 6,2 C 5,6 C 5,0 C 85 % 1000,0 hPa 0,0 l/m 0 min 0 min 0 W/m 25,7 km/h (4 Bft) 97,87 %
05.03.2019 00:54 6,2 C 5,6 C 5,0 C 85 % 1000,0 hPa 0,0 l/m 0 min 0 min 0 W/m 32,2 km/h (5 Bft) 97,87 %
05.03.2019 00:56 6,2 C 5,6 C 5,0 C 85 % 1000,0 hPa 0,0 l/m 0 min 0 min 0 W/m 19,3 km/h (3 Bft) 97,87 %
05.03.2019 00:58 6,2 C 5,6 C 5,0 C 85 % 999,9 hPa 0,0 l/m 0 min 0 min 0 W/m 12,9 km/h (3 Bft) 100,00 %
05.03.2019 01:00 6,2 C 5,6 C 5,0 C 85 % 999,9 hPa 0,0 l/m 0 min 0 min 0 W/m 29,0 km/h (5 Bft) 100,00 %
05.03.2019 01:02 6,2 C 5,6 C 5,0 C 85 % 1000,0 hPa 0,0 l/m 0 min 0 min 0 W/m 16,1 km/h (3 Bft) 100,00 %
05.03.2019 01:04 6,3 C 5,6 C 5,0 C 85 % 999,9 hPa 0,0 l/m 0 min 0 min 0 W/m 12,9 km/h (3 Bft) 100,00 %
05.03.2019 01:06 6,2 C 5,6 C 5,0 C 85 % 1000,0 hPa 0,0 l/m 0 min 0 min 0 W/m 29,0 km/h (5 Bft) 95,74 %
05.03.2019 01:08 6,3 C 5,6 C 5,0 C 85 % 1000,0 hPa 0,0 l/m 0 min 0 min 0 W/m 25,7 km/h (4 Bft) 91,49 %
05.03.2019 01:10 6,3 C 5,6 C 5,0 C 85 % 1000,0 hPa 0,0 l/m 0 min 0 min 0 W/m 22,5 km/h (4 Bft) 100,00 %
05.03.2019 01:12 6,3 C 6,1 C 5,0 C 85 % 1000,0 hPa 0,0 l/m 0 min 0 min 0 W/m 22,5 km/h (4 Bft) 100,00 %
05.03.2019 01:14 6,3 C 6,1 C 5,0 C 85 % 1000,0 hPa 0,0 l/m 0 min 0 min 0 W/m 29,0 km/h (5 Bft) 100,00 %
05.03.2019 01:16 6,3 C 6,1 C 5,0 C 85 % 1000,0 hPa 0,0 l/m 0 min 0 min 0 W/m 22,5 km/h (4 Bft) 97,87 %
05.03.2019 01:18 6,3 C 6,1 C 5,0 C 85 % 1000,0 hPa 0,0 l/m 0 min 0 min 0 W/m 35,4 km/h (5 Bft) 97,87 %
05.03.2019 01:20 6,4 C 6,1 C 5,0 C 85 % 1000,0 hPa 0,0 l/m 0 min 0 min 0 W/m 25,7 km/h (4 Bft) 100,00 %
05.03.2019 01:22 6,4 C 6,1 C 5,0 C 85 % 1000,0 hPa 0,0 l/m 0 min 0 min 0 W/m 41,8 km/h (6 Bft) 100,00 %
05.03.2019 01:24 6,4 C 5,6 C 5,0 C 85 % 1000,0 hPa 0,0 l/m 0 min 0 min 0 W/m 19,3 km/h (3 Bft) 97,87 %
05.03.2019 01:26 6,4 C 5,6 C 5,0 C 85 % 999,9 hPa 0,0 l/m 0 min 0 min 0 W/m 16,1 km/h (3 Bft) 100,00 %
05.03.2019 01:28 6,4 C 5,6 C 5,0 C 85 % 1000,0 hPa 0,0 l/m 0 min 0 min 0 W/m 29,0 km/h (5 Bft) 100,00 %
05.03.2019 01:30 6,4 C 5,6 C 5,0 C 85 % 999,9 hPa 0,0 l/m 0 min 0 min 0 W/m 19,3 km/h (3 Bft) 100,00 %
05.03.2019 01:32 6,4 C 5,6 C 5,0 C 85 % 1000,0 hPa 0,0 l/m 0 min 0 min 0 W/m 19,3 km/h (3 Bft) 100,00 %
05.03.2019 01:34 6,4 C 6,1 C 5,0 C 85 % 999,9 hPa 0,0 l/m 0 min 0 min 0 W/m 25,7 km/h (4 Bft) 100,00 %
05.03.2019 01:36 6,4 C 5,6 C 5,0 C 85 % 1000,0 hPa 0,0 l/m 0 min 0 min 0 W/m 25,7 km/h (4 Bft) 100,00 %
05.03.2019 01:38 6,4 C 5,6 C 5,0 C 84 % 1000,0 hPa 0,0 l/m 0 min 0 min 0 W/m 19,3 km/h (3 Bft) 100,00 %
05.03.2019 01:40 6,4 C 5,6 C 5,0 C 84 % 1000,0 hPa 0,0 l/m 0 min 0 min 0 W/m 25,7 km/h (4 Bft) 100,00 %
05.03.2019 01:42 6,4 C 6,1 C 5,0 C 84 % 1000,0 hPa 0,0 l/m 0 min 0 min 0 W/m 29,0 km/h (5 Bft) 100,00 %
05.03.2019 01:44 6,4 C 6,1 C 5,0 C 84 % 1000,1 hPa 0,0 l/m 0 min 0 min 0 W/m 16,1 km/h (3 Bft) 100,00 %
05.03.2019 01:46 6,4 C 5,6 C 5,0 C 84 % 1000,0 hPa 0,0 l/m 0 min 0 min 0 W/m 9,7 km/h (2 Bft) 100,00 %
05.03.2019 01:48 6,4 C 5,6 C 5,0 C 84 % 1000,0 hPa 0,0 l/m 0 min 0 min 0 W/m 9,7 km/h (2 Bft) 100,00 %
05.03.2019 01:50 6,4 C 5,6 C 5,0 C 84 % 1000,0 hPa 0,0 l/m 0 min 0 min 0 W/m 25,7 km/h (4 Bft) 100,00 %
05.03.2019 01:52 6,4 C 5,6 C 5,0 C 84 % 1000,1 hPa 0,0 l/m 0 min 0 min 0 W/m 12,9 km/h (3 Bft) 100,00 %
05.03.2019 01:54 6,4 C 5,6 C 5,0 C 84 % 1000,0 hPa 0,0 l/m 0 min 0 min 0 W/m 16,1 km/h (3 Bft) 100,00 %
05.03.2019 01:56 6,4 C 6,1 C 5,0 C 84 % 1000,0 hPa 0,0 l/m 0 min 0 min 0 W/m 19,3 km/h (3 Bft) 97,87 %
05.03.2019 01:58 6,4 C 5,6 C 5,0 C 84 % 1000,1 hPa 0,0 l/m 0 min 0 min 0 W/m 22,5 km/h (4 Bft) 95,65 %
05.03.2019 02:00 6,4 C 6,1 C 5,0 C 84 % 1000,1 hPa 0,0 l/m 0 min 0 min 0 W/m 19,3 km/h (3 Bft) 95,74 %
05.03.2019 02:02 6,4 C 5,6 C 5,0 C 84 % 1000,2 hPa 0,0 l/m 0 min 0 min 0 W/m 25,7 km/h (4 Bft) 97,87 %
05.03.2019 02:04 6,4 C 5,6 C 5,0 C 84 % 1000,1 hPa 0,0 l/m 0 min 0 min 0 W/m 29,0 km/h (5 Bft) 97,87 %
05.03.2019 02:06 6,4 C 5,6 C 5,0 C 84 % 1000,1 hPa 0,0 l/m 0 min 0 min 0 W/m 22,5 km/h (4 Bft) 97,87 %
05.03.2019 02:08 6,4 C 5,6 C 5,0 C 84 % 1000,1 hPa 0,0 l/m 0 min 0 min 0 W/m 19,3 km/h (3 Bft) 97,87 %
05.03.2019 02:10 6,4 C 6,1 C 5,0 C 84 % 1000,1 hPa 0,0 l/m 0 min 0 min 0 W/m 22,5 km/h (4 Bft) 97,83 %
05.03.2019 02:12 6,4 C 5,6 C 5,0 C 84 % 1000,2 hPa 0,0 l/m 0 min 0 min 0 W/m 9,7 km/h (2 Bft) 95,74 %
05.03.2019 02:14 6,3 C 5,6 C 5,0 C 84 % 1000,3 hPa 0,0 l/m 0 min 0 min 0 W/m 16,1 km/h (3 Bft) 94,59 %
05.03.2019 02:16 6,3 C 5,6 C 5,0 C 84 % 1000,4 hPa 0,0 l/m 0 min 0 min 0 W/m 9,7 km/h (2 Bft) 95,65 %
05.03.2019 02:18 6,3 C 5,6 C 5,0 C 84 % 1000,4 hPa 0,0 l/m 0 min 0 min 0 W/m 19,3 km/h (3 Bft) 95,74 %
05.03.2019 02:20 6,3 C 5,6 C 5,0 C 83 % 1000,4 hPa 0,0 l/m 0 min 2 min 0 W/m 12,9 km/h (3 Bft) 97,87 %
05.03.2019 02:22 6,3 C 5,6 C 5,0 C 83 % 1000,4 hPa 0,0 l/m 0 min 2 min 0 W/m 16,1 km/h (3 Bft) 97,87 %
05.03.2019 02:24 6,3 C 5,6 C 5,0 C 83 % 1000,4 hPa 0,0 l/m 0 min 2 min 0 W/m 16,1 km/h (3 Bft) 97,87 %
05.03.2019 02:26 6,3 C 5,6 C 5,0 C 83 % 1000,3 hPa 0,0 l/m 0 min 2 min 0 W/m 22,5 km/h (4 Bft) 97,87 %
05.03.2019 02:28 6,3 C 5,6 C 5,0 C 84 % 1000,3 hPa 0,0 l/m 0 min 2 min 0 W/m 19,3 km/h (3 Bft) 95,65 %
05.03.2019 02:30 6,3 C 5,6 C 5,0 C 83 % 1000,4 hPa 0,0 l/m 0 min 2 min 0 W/m 25,7 km/h (4 Bft) 95,74 %
05.03.2019 02:32 6,3 C 5,6 C 5,0 C 83 % 1000,4 hPa 0,0 l/m 0 min 2 min 0 W/m 9,7 km/h (2 Bft) 95,74 %
05.03.2019 02:34 6,2 C 5,6 C 5,0 C 83 % 1000,4 hPa 0,0 l/m 0 min 2 min 0 W/m 22,5 km/h (4 Bft) 97,87 %
05.03.2019 02:36 6,2 C 5,6 C 5,0 C 83 % 1000,4 hPa 0,0 l/m 0 min 2 min 0 W/m 32,2 km/h (5 Bft) 96,55 %
05.03.2019 02:38 6,2 C 5,6 C 5,0 C 83 % 1000,4 hPa 0,0 l/m 0 min 2 min 0 W/m 22,5 km/h (4 Bft) 94,44 %
05.03.2019 02:40 6,2 C 5,6 C 5,0 C 83 % 1000,5 hPa 0,0 l/m 0 min 0 min 0 W/m 22,5 km/h (4 Bft) 95,65 %
05.03.2019 02:42 6,1 C 5,6 C 5,0 C 83 % 1000,6 hPa 0,0 l/m 0 min 0 min 0 W/m 25,7 km/h (4 Bft) 93,62 %
05.03.2019 02:44 6,1 C 5,6 C 4,4 C 82 % 1000,5 hPa 0,0 l/m 0 min 0 min 0 W/m 29,0 km/h (5 Bft) 97,87 %
05.03.2019 02:46 6,1 C 5,0 C 4,4 C 82 % 1000,5 hPa 0,0 l/m 0 min 0 min 0 W/m 19,3 km/h (3 Bft) 91,49 %
05.03.2019 02:48 6,0 C 5,0 C 4,4 C 82 % 1000,5 hPa 0,0 l/m 0 min 0 min 0 W/m 12,9 km/h (3 Bft) 91,49 %
05.03.2019 02:50 5,9 C 5,0 C 4,4 C 82 % 1000,5 hPa 0,0 l/m 0 min 0 min 0 W/m 12,9 km/h (3 Bft) 93,62 %
05.03.2019 02:52 5,9 C 5,0 C 4,4 C 82 % 1000,5 hPa 0,0 l/m 0 min 0 min 0 W/m 16,1 km/h (3 Bft) 91,30 %
05.03.2019 02:54 5,9 C 5,0 C 4,4 C 82 % 1000,5 hPa 0,0 l/m 0 min 0 min 0 W/m 19,3 km/h (3 Bft) 93,62 %
05.03.2019 02:56 5,9 C 5,0 C 4,4 C 82 % 1000,6 hPa 0,0 l/m 0 min 2 min 0 W/m 12,9 km/h (3 Bft) 93,62 %
05.03.2019 02:58 5,8 C 5,0 C 4,4 C 82 % 1000,6 hPa 0,0 l/m 0 min 2 min 0 W/m 25,7 km/h (4 Bft) 93,62 %
05.03.2019 03:00 5,8 C 5,0 C 3,9 C 83 % 1000,7 hPa 0,0 l/m 0 min 2 min 0 W/m 19,3 km/h (3 Bft) 89,36 %
05.03.2019 03:02 5,8 C 5,0 C 4,4 C 83 % 1000,7 hPa 0,0 l/m 0 min 2 min 0 W/m 22,5 km/h (4 Bft) 95,74 %
05.03.2019 03:04 5,8 C 5,0 C 4,4 C 83 % 1000,6 hPa 0,0 l/m 0 min 0 min 0 W/m 32,2 km/h (5 Bft) 95,65 %
05.03.2019 03:06 5,8 C 5,0 C 4,4 C 83 % 1000,6 hPa 0,0 l/m 0 min 0 min 0 W/m 19,3 km/h (3 Bft) 96,61 %
05.03.2019 03:08 5,8 C 5,0 C 4,4 C 83 % 1000,6 hPa 0,0 l/m 0 min 0 min 0 W/m 16,1 km/h (3 Bft) 93,62 %
05.03.2019 03:10 5,7 C 5,0 C 4,4 C 84 % 1000,6 hPa 0,0 l/m 0 min 0 min 0 W/m 29,0 km/h (5 Bft) 91,43 %
05.03.2019 03:12 5,7 C 5,0 C 4,4 C 84 % 1000,5 hPa 0,0 l/m 0 min 0 min 0 W/m 29,0 km/h (5 Bft) 95,74 %
05.03.2019 03:14 5,7 C 5,0 C 4,4 C 84 % 1000,6 hPa 0,0 l/m 0 min 0 min 0 W/m 22,5 km/h (4 Bft) 95,65 %
05.03.2019 03:16 5,7 C 5,0 C 4,4 C 84 % 1000,6 hPa 0,0 l/m 0 min 0 min 0 W/m 25,7 km/h (4 Bft) 93,62 %
05.03.2019 03:18 5,7 C 5,0 C 4,4 C 84 % 1000,6 hPa 0,0 l/m 0 min 0 min 0 W/m 22,5 km/h (4 Bft) 91,49 %
05.03.2019 03:20 5,6 C 5,0 C 4,4 C 84 % 1000,6 hPa 0,0 l/m 0 min 0 min 0 W/m 25,7 km/h (4 Bft) 95,74 %
05.03.2019 03:22 5,6 C 5,0 C 4,4 C 84 % 1000,6 hPa 0,0 l/m 0 min 0 min 0 W/m 22,5 km/h (4 Bft) 95,74 %
05.03.2019 03:24 5,6 C 5,0 C 4,4 C 84 % 1000,5 hPa 0,0 l/m 0 min 0 min 0 W/m 16,1 km/h (3 Bft) 95,74 %
05.03.2019 03:26 5,6 C 5,0 C 4,4 C 84 % 1000,6 hPa 0,0 l/m 0 min 0 min 0 W/m 25,7 km/h (4 Bft) 95,65 %
05.03.2019 03:28 5,6 C 5,0 C 4,4 C 84 % 1000,7 hPa 0,0 l/m 0 min 0 min 0 W/m 22,5 km/h (4 Bft) 95,74 %
05.03.2019 03:30 5,5 C 5,0 C 4,4 C 84 % 1000,6 hPa 0,0 l/m 0 min 0 min 0 W/m 22,5 km/h (4 Bft) 97,87 %
05.03.2019 03:32 5,5 C 5,0 C 4,4 C 85 % 1000,7 hPa 0,0 l/m 0 min 0 min 0 W/m 22,5 km/h (4 Bft) 95,74 %
05.03.2019 03:34 5,5 C 5,0 C 4,4 C 85 % 1000,6 hPa 0,0 l/m 0 min 0 min 0 W/m 16,1 km/h (3 Bft) 100,00 %
05.03.2019 03:36 5,5 C 5,0 C 4,4 C 85 % 1000,8 hPa 0,0 l/m 0 min 0 min 0 W/m 22,5 km/h (4 Bft) 98,28 %
05.03.2019 03:38 5,4 C 5,0 C 4,4 C 85 % 1000,6 hPa 0,0 l/m 0 min 0 min 0 W/m 22,5 km/h (4 Bft) 100,00 %
05.03.2019 03:40 5,4 C 5,0 C 4,4 C 85 % 1000,7 hPa 0,0 l/m 0 min 0 min 0 W/m 25,7 km/h (4 Bft) 100,00 %
05.03.2019 03:42 5,4 C 5,0 C 4,4 C 85 % 1000,7 hPa 0,0 l/m 0 min 0 min 0 W/m 16,1 km/h (3 Bft) 100,00 %
05.03.2019 03:44 5,4 C 5,0 C 4,4 C 85 % 1000,7 hPa 0,0 l/m 0 min 0 min 0 W/m 19,3 km/h (3 Bft) 100,00 %
05.03.2019 03:46 5,4 C 5,0 C 4,4 C 85 % 1000,7 hPa 0,0 l/m 0 min 0 min 0 W/m 25,7 km/h (4 Bft) 97,87 %
05.03.2019 03:48 5,4 C 5,0 C 4,4 C 85 % 1000,7 hPa 0,0 l/m 0 min 0 min 0 W/m 9,7 km/h (2 Bft) 100,00 %
05.03.2019 03:50 5,4 C 5,0 C 4,4 C 85 % 1000,8 hPa 0,0 l/m 0 min 0 min 0 W/m 22,5 km/h (4 Bft) 100,00 %
05.03.2019 03:52 5,4 C 5,0 C 4,4 C 85 % 1000,8 hPa 0,0 l/m 0 min 0 min 0 W/m 12,9 km/h (3 Bft) 100,00 %
05.03.2019 03:54 5,4 C 5,0 C 4,4 C 85 % 1000,7 hPa 0,0 l/m 0 min 0 min 0 W/m 22,5 km/h (4 Bft) 100,00 %
05.03.2019 03:56 5,4 C 5,0 C 4,4 C 85 % 1000,7 hPa 0,0 l/m 0 min 0 min 0 W/m 16,1 km/h (3 Bft) 100,00 %
05.03.2019 03:58 5,4 C 5,0 C 4,4 C 85 % 1000,7 hPa 0,0 l/m 0 min 0 min 0 W/m 22,5 km/h (4 Bft) 97,87 %
05.03.2019 04:00 5,4 C 5,0 C 4,4 C 85 % 1000,7 hPa 0,0 l/m 0 min 0 min 0 W/m 29,0 km/h (5 Bft) 100,00 %
05.03.2019 04:05 5,4 C 5,0 C 4,4 C 86 % 1000,6 hPa 0,0 l/m 0 min 0 min 0 W/m 25,7 km/h (4 Bft) 98,68 %
05.03.2019 04:06 5,4 C 5,0 C 4,4 C 86 % 1000,6 hPa 0,0 l/m 0 min 0 min 0 W/m 12,9 km/h (3 Bft) 100,00 %
05.03.2019 04:08 5,4 C 5,0 C 4,4 C 86 % 1000,6 hPa 0,0 l/m 0 min 0 min 0 W/m 19,3 km/h (3 Bft) 100,00 %
05.03.2019 04:10 5,4 C 5,0 C 4,4 C 86 % 1000,7 hPa 0,0 l/m 0 min 0 min 0 W/m 19,3 km/h (3 Bft) 100,00 %
05.03.2019 04:12 5,4 C 5,0 C 4,4 C 86 % 1000,6 hPa 0,0 l/m 0 min 0 min 0 W/m 22,5 km/h (4 Bft) 100,00 %
05.03.2019 04:14 5,4 C 5,0 C 3,9 C 86 % 1000,5 hPa 0,0 l/m 0 min 0 min 0 W/m 25,7 km/h (4 Bft) 97,83 %
05.03.2019 04:16 5,4 C 4,4 C 3,9 C 86 % 1000,5 hPa 0,0 l/m 0 min 0 min 0 W/m 19,3 km/h (3 Bft) 100,00 %
05.03.2019 04:18 5,3 C 4,4 C 3,9 C 86 % 1000,5 hPa 0,0 l/m 0 min 0 min 0 W/m 16,1 km/h (3 Bft) 100,00 %
05.03.2019 04:20 5,3 C 4,4 C 3,9 C 86 % 1000,6 hPa 0,0 l/m 0 min 0 min 0 W/m 19,3 km/h (3 Bft) 100,00 %
05.03.2019 04:22 5,3 C 4,4 C 3,9 C 86 % 1000,6 hPa 0,0 l/m 0 min 0 min 0 W/m 32,2 km/h (5 Bft) 100,00 %
05.03.2019 04:24 5,3 C 4,4 C 3,9 C 86 % 1000,5 hPa 0,0 l/m 0 min 0 min 0 W/m 12,9 km/h (3 Bft) 100,00 %
05.03.2019 04:26 5,3 C 4,4 C 3,9 C 86 % 1000,5 hPa 0,0 l/m 0 min 0 min 0 W/m 19,3 km/h (3 Bft) 100,00 %
05.03.2019 04:28 5,2 C 4,4 C 3,9 C 86 % 1000,6 hPa 0,0 l/m 0 min 0 min 0 W/m 16,1 km/h (3 Bft) 97,87 %
05.03.2019 04:30 5,2 C 4,4 C 3,9 C 86 % 1000,6 hPa 0,0 l/m 0 min 0 min 0 W/m 19,3 km/h (3 Bft) 100,00 %
05.03.2019 04:32 5,2 C 4,4 C 3,9 C 86 % 1000,6 hPa 0,0 l/m 0 min 0 min 0 W/m 9,7 km/h (2 Bft) 97,87 %
05.03.2019 04:34 5,2 C 4,4 C 3,9 C 86 % 1000,6 hPa 0,0 l/m 0 min 0 min 0 W/m 19,3 km/h (3 Bft) 100,00 %
05.03.2019 04:36 5,2 C 4,4 C 3,9 C 86 % 1000,7 hPa 0,0 l/m 0 min 0 min 0 W/m 16,1 km/h (3 Bft) 96,55 %
05.03.2019 04:38 5,1 C 4,4 C 3,9 C 86 % 1000,7 hPa 0,0 l/m 0 min 0 min 0 W/m 16,1 km/h (3 Bft) 97,87 %
05.03.2019 04:40 5,1 C 4,4 C 3,9 C 86 % 1000,6 hPa 0,0 l/m 0 min 0 min 0 W/m 16,1 km/h (3 Bft) 100,00 %
05.03.2019 04:42 5,1 C 4,4 C 3,9 C 86 % 1000,7 hPa 0,0 l/m 0 min 0 min 0 W/m 22,5 km/h (4 Bft) 97,87 %
05.03.2019 04:44 5,1 C 4,4 C 3,9 C 86 % 1000,7 hPa 0,0 l/m 0 min 0 min 0 W/m 29,0 km/h (5 Bft) 100,00 %
05.03.2019 04:46 5,1 C 4,4 C 3,9 C 86 % 1000,7 hPa 0,0 l/m 0 min 0 min 0 W/m 16,1 km/h (3 Bft) 100,00 %
05.03.2019 04:48 5,1 C 4,4 C 3,9 C 86 % 1000,7 hPa 0,0 l/m 0 min 0 min 0 W/m 19,3 km/h (3 Bft) 100,00 %
05.03.2019 04:50 5,1 C 4,4 C 3,9 C 86 % 1000,6 hPa 0,0 l/m 0 min 0 min 0 W/m 19,3 km/h (3 Bft) 100,00 %
05.03.2019 04:52 5,1 C 4,4 C 3,9 C 86 % 1000,7 hPa 0,0 l/m 0 min 0 min 0 W/m 25,7 km/h (4 Bft) 100,00 %
05.03.2019 04:54 5,1 C 4,4 C 3,9 C 86 % 1000,8 hPa 0,0 l/m 0 min 0 min 0 W/m 16,1 km/h (3 Bft) 97,87 %
05.03.2019 04:56 5,1 C 4,4 C 3,9 C 86 % 1000,7 hPa 0,0 l/m 0 min 0 min 0 W/m 16,1 km/h (3 Bft) 100,00 %
05.03.2019 04:58 5,1 C 4,4 C 3,9 C 86 % 1000,7 hPa 0,0 l/m 0 min 0 min 0 W/m 25,7 km/h (4 Bft) 100,00 %
05.03.2019 05:00 5,1 C 4,4 C 3,9 C 86 % 1000,7 hPa 0,0 l/m 0 min 0 min 0 W/m 22,5 km/h (4 Bft) 100,00 %
05.03.2019 05:02 5,1 C 4,4 C 3,9 C 86 % 1000,7 hPa 0,0 l/m 0 min 0 min 0 W/m 19,3 km/h (3 Bft) 97,87 %
05.03.2019 05:04 5,1 C 4,4 C 3,9 C 86 % 1000,8 hPa 0,0 l/m 0 min 0 min 0 W/m 25,7 km/h (4 Bft) 95,74 %
05.03.2019 05:05 5,1 C 4,4 C 3,9 C 87 % 1000,8 hPa 0,0 l/m 0 min 0 min 0 W/m 25,7 km/h (4 Bft) 100,00 %
05.03.2019 05:10 5,1 C 4,4 C 3,9 C 86 % 1000,8 hPa 0,0 l/m 0 min 0 min 0 W/m 32,2 km/h (5 Bft) 100,00 %
05.03.2019 05:12 5,1 C 4,4 C 3,9 C 87 % 1000,7 hPa 0,0 l/m 0 min 0 min 0 W/m 25,7 km/h (4 Bft) 100,00 %
05.03.2019 05:14 5,1 C 4,4 C 3,9 C 87 % 1000,7 hPa 0,0 l/m 0 min 0 min 0 W/m 35,4 km/h (5 Bft) 97,87 %
05.03.2019 05:16 5,1 C 4,4 C 3,9 C 87 % 1000,7 hPa 0,0 l/m 0 min 0 min 0 W/m 22,5 km/h (4 Bft) 100,00 %
05.03.2019 05:18 5,1 C 4,4 C 3,9 C 87 % 1000,7 hPa 0,0 l/m 0 min 0 min 0 W/m 12,9 km/h (3 Bft) 100,00 %
05.03.2019 05:20 5,1 C 4,4 C 3,9 C 87 % 1000,8 hPa 0,0 l/m 0 min 0 min 0 W/m 19,3 km/h (3 Bft) 100,00 %
05.03.2019 05:22 5,1 C 4,4 C 3,9 C 87 % 1000,7 hPa 0,0 l/m 0 min 0 min 0 W/m 19,3 km/h (3 Bft) 93,88 %
05.03.2019 05:24 5,1 C 4,4 C 3,9 C 87 % 1000,7 hPa 0,0 l/m 0 min 0 min 0 W/m 48,3 km/h (6 Bft) 97,96 %
05.03.2019 05:26 5,1 C 4,4 C 3,9 C 87 % 1000,8 hPa 0,0 l/m 0 min 0 min 0 W/m 19,3 km/h (3 Bft) 97,87 %
05.03.2019 05:28 5,1 C 4,4 C 3,9 C 87 % 1000,7 hPa 0,0 l/m 0 min 0 min 0 W/m 22,5 km/h (4 Bft) 97,87 %
05.03.2019 05:30 5,1 C 4,4 C 3,9 C 87 % 1000,7 hPa 0,0 l/m 0 min 0 min 0 W/m 32,2 km/h (5 Bft) 97,87 %
05.03.2019 05:32 5,1 C 4,4 C 3,9 C 87 % 1000,6 hPa 0,0 l/m 0 min 0 min 0 W/m 19,3 km/h (3 Bft) 93,62 %
05.03.2019 05:34 5,1 C 4,4 C 3,9 C 87 % 1000,7 hPa 0,0 l/m 0 min 0 min 0 W/m 19,3 km/h (3 Bft) 97,56 %
05.03.2019 05:36 5,1 C 5,0 C 3,9 C 87 % 1000,8 hPa 0,0 l/m 0 min 0 min 0 W/m 25,7 km/h (4 Bft) 91,53 %
05.03.2019 05:38 5,1 C 5,0 C 3,9 C 87 % 1000,8 hPa 0,0 l/m 0 min 0 min 0 W/m 19,3 km/h (3 Bft) 94,29 %
05.03.2019 05:40 5,2 C 5,0 C 3,9 C 87 % 1000,7 hPa 0,0 l/m 0 min 0 min 0 W/m 25,7 km/h (4 Bft) 93,88 %
05.03.2019 05:42 5,2 C 5,0 C 4,4 C 87 % 1000,8 hPa 0,0 l/m 0 min 0 min 0 W/m 22,5 km/h (4 Bft) 95,74 %
05.03.2019 05:44 5,2 C 5,0 C 4,4 C 87 % 1000,8 hPa 0,0 l/m 0 min 0 min 0 W/m 25,7 km/h (4 Bft) 93,75 %
05.03.2019 05:46 5,2 C 5,0 C 4,4 C 87 % 1000,7 hPa 0,0 l/m 0 min 0 min 0 W/m 16,1 km/h (3 Bft) 93,62 %
05.03.2019 05:48 5,3 C 5,0 C 4,4 C 87 % 1000,9 hPa 0,0 l/m 0 min 0 min 0 W/m 29,0 km/h (5 Bft) 91,49 %
05.03.2019 05:50 5,3 C 5,0 C 4,4 C 86 % 1000,8 hPa 0,0 l/m 0 min 0 min 0 W/m 25,7 km/h (4 Bft) 93,75 %
05.03.2019 05:52 5,3 C 5,0 C 4,4 C 86 % 1000,7 hPa 0,0 l/m 0 min 0 min 0 W/m 19,3 km/h (3 Bft) 93,62 %
05.03.2019 05:54 5,3 C 5,0 C 4,4 C 86 % 1000,8 hPa 0,0 l/m 0 min 0 min 0 W/m 32,2 km/h (5 Bft) 91,49 %
05.03.2019 05:56 5,4 C 5,0 C 4,4 C 86 % 1000,7 hPa 0,0 l/m 0 min 0 min 0 W/m 29,0 km/h (5 Bft) 93,62 %
05.03.2019 05:58 5,4 C 5,0 C 4,4 C 86 % 1000,8 hPa 0,0 l/m 0 min 0 min 0 W/m 12,9 km/h (3 Bft) 93,62 %
05.03.2019 06:00 5,4 C 5,0 C 4,4 C 86 % 1000,8 hPa 0,0 l/m 0 min 0 min 0 W/m 29,0 km/h (5 Bft) 91,49 %
05.03.2019 06:02 5,4 C 5,0 C 4,4 C 86 % 1000,8 hPa 0,0 l/m 0 min 0 min 0 W/m 19,3 km/h (3 Bft) 93,48 %
05.03.2019 06:04 5,4 C 5,0 C 4,4 C 86 % 1000,8 hPa 0,0 l/m 0 min 0 min 0 W/m 19,3 km/h (3 Bft) 95,74 %
05.03.2019 06:08 5,4 C 5,0 C 4,4 C 86 % 1000,7 hPa 0,0 l/m 0 min 0 min 0 W/m 29,0 km/h (5 Bft) 95,74 %
05.03.2019 06:10 5,5 C 5,0 C 4,4 C 86 % 1000,8 hPa 0,0 l/m 0 min 0 min 0 W/m 19,3 km/h (3 Bft) 93,62 %
05.03.2019 06:12 5,5 C 5,0 C 4,4 C 86 % 1000,8 hPa 0,0 l/m 0 min 0 min 0 W/m 32,2 km/h (5 Bft) 95,74 %
05.03.2019 06:14 5,5 C 5,0 C 4,4 C 85 % 1000,8 hPa 0,0 l/m 0 min 0 min 0 W/m 25,7 km/h (4 Bft) 95,65 %
05.03.2019 06:16 5,5 C 5,0 C 4,4 C 85 % 1000,8 hPa 0,0 l/m 0 min 0 min 0 W/m 35,4 km/h (5 Bft) 95,74 %
05.03.2019 06:18 5,6 C 5,0 C 4,4 C 85 % 1000,8 hPa 0,0 l/m 0 min 0 min 0 W/m 22,5 km/h (4 Bft) 95,74 %
05.03.2019 06:20 5,6 C 5,0 C 4,4 C 85 % 1000,8 hPa 0,0 l/m 0 min 0 min 0 W/m 29,0 km/h (5 Bft) 97,87 %
05.03.2019 06:22 5,6 C 5,0 C 4,4 C 85 % 1000,8 hPa 0,0 l/m 0 min 0 min 0 W/m 35,4 km/h (5 Bft) 95,74 %
05.03.2019 06:24 5,6 C 5,0 C 4,4 C 85 % 1000,9 hPa 0,0 l/m 0 min 0 min 0 W/m 35,4 km/h (5 Bft) 95,74 %
05.03.2019 06:26 5,6 C 5,0 C 4,4 C 85 % 1000,8 hPa 0,0 l/m 0 min 0 min 0 W/m 29,0 km/h (5 Bft) 95,65 %
05.03.2019 06:28 5,6 C 5,0 C 4,4 C 85 % 1000,8 hPa 0,0 l/m 0 min 0 min 0 W/m 19,3 km/h (3 Bft) 95,74 %
05.03.2019 06:30 5,6 C 5,0 C 4,4 C 85 % 1000,8 hPa 0,0 l/m 0 min 0 min 0 W/m 19,3 km/h (3 Bft) 97,87 %
05.03.2019 06:32 5,7 C 5,0 C 4,4 C 85 % 1000,9 hPa 0,0 l/m 0 min 0 min 0 W/m 29,0 km/h (5 Bft) 95,74 %
05.03.2019 06:34 5,7 C 5,0 C 4,4 C 85 % 1000,9 hPa 0,0 l/m 0 min 0 min 0 W/m 32,2 km/h (5 Bft) 97,87 %
05.03.2019 06:36 5,7 C 5,0 C 4,4 C 85 % 1001,0 hPa 0,0 l/m 0 min 0 min 0 W/m 16,1 km/h (3 Bft) 98,28 %
05.03.2019 06:38 5,6 C 5,0 C 4,4 C 85 % 1000,9 hPa 0,0 l/m 0 min 0 min 0 W/m 29,0 km/h (5 Bft) 97,14 %
05.03.2019 06:40 5,6 C 5,0 C 4,4 C 85 % 1001,0 hPa 0,0 l/m 0 min 0 min 0 W/m 32,2 km/h (5 Bft) 97,87 %
05.03.2019 06:42 5,6 C 5,0 C 4,4 C 85 % 1001,0 hPa 0,0 l/m 0 min 0 min 0 W/m 32,2 km/h (5 Bft) 97,87 %
05.03.2019 06:44 5,6 C 5,0 C 4,4 C 85 % 1000,9 hPa 0,0 l/m 0 min 0 min 0 W/m 22,5 km/h (4 Bft) 100,00 %
05.03.2019 06:46 5,6 C 5,0 C 4,4 C 85 % 1001,0 hPa 0,0 l/m 0 min 0 min 0 W/m 22,5 km/h (4 Bft) 100,00 %
05.03.2019 06:48 5,6 C 5,0 C 4,4 C 85 % 1001,0 hPa 0,0 l/m 0 min 0 min 0 W/m 19,3 km/h (3 Bft) 100,00 %
05.03.2019 06:50 5,6 C 5,0 C 4,4 C 85 % 1001,0 hPa 0,0 l/m 0 min 0 min 0 W/m 22,5 km/h (4 Bft) 100,00 %
05.03.2019 06:52 5,6 C 5,0 C 4,4 C 85 % 1001,0 hPa 0,0 l/m 0 min 0 min 0 W/m 32,2 km/h (5 Bft) 97,87 %
05.03.2019 06:54 5,5 C 5,0 C 4,4 C 85 % 1001,1 hPa 0,0 l/m 0 min 0 min 0 W/m 29,0 km/h (5 Bft) 100,00 %
05.03.2019 06:56 5,5 C 5,0 C 4,4 C 85 % 1001,0 hPa 0,0 l/m 0 min 0 min 0 W/m 16,1 km/h (3 Bft) 100,00 %
05.03.2019 06:58 5,5 C 5,0 C 4,4 C 85 % 1001,1 hPa 0,0 l/m 0 min 0 min 0 W/m 19,3 km/h (3 Bft) 100,00 %
05.03.2019 07:00 5,4 C 5,0 C 4,4 C 86 % 1001,2 hPa 0,0 l/m 0 min 0 min 0 W/m 16,1 km/h (3 Bft) 97,83 %
05.03.2019 07:02 5,4 C 5,0 C 4,4 C 86 % 1001,0 hPa 0,0 l/m 0 min 0 min 0 W/m 16,1 km/h (3 Bft) 97,87 %
05.03.2019 07:04 5,4 C 5,0 C 4,4 C 86 % 1001,1 hPa 0,0 l/m 0 min 0 min 0 W/m 19,3 km/h (3 Bft) 100,00 %
05.03.2019 07:06 5,4 C 5,0 C 4,4 C 86 % 1001,0 hPa 0,0 l/m 0 min 0 min 0 W/m 16,1 km/h (3 Bft) 100,00 %
05.03.2019 07:08 5,4 C 5,0 C 4,4 C 86 % 1000,9 hPa 0,0 l/m 0 min 0 min 0 W/m 35,4 km/h (5 Bft) 100,00 %
05.03.2019 07:10 5,4 C 5,0 C 4,4 C 86 % 1001,2 hPa 0,0 l/m 0 min 0 min 0 W/m 29,0 km/h (5 Bft) 97,87 %
05.03.2019 07:12 5,4 C 4,4 C 3,9 C 86 % 1001,2 hPa 0,0 l/m 0 min 0 min 0 W/m 22,5 km/h (4 Bft) 100,00 %
05.03.2019 07:14 5,3 C 4,4 C 3,9 C 87 % 1001,1 hPa 0,0 l/m 0 min 0 min 0 W/m 38,6 km/h (5 Bft) 100,00 %
05.03.2019 07:16 5,3 C 4,4 C 3,9 C 87 % 1001,2 hPa 0,0 l/m 0 min 0 min 0 W/m 22,5 km/h (4 Bft) 100,00 %
05.03.2019 07:18 5,3 C 4,4 C 3,9 C 87 % 1001,1 hPa 0,0 l/m 0 min 0 min 0 W/m 25,7 km/h (4 Bft) 100,00 %
05.03.2019 07:20 5,3 C 4,4 C 3,9 C 87 % 1001,2 hPa 0,0 l/m 0 min 0 min 0 W/m 38,6 km/h (5 Bft) 100,00 %
05.03.2019 07:22 5,3 C 4,4 C 3,9 C 87 % 1001,2 hPa 0,0 l/m 0 min 0 min 0 W/m 29,0 km/h (5 Bft) 100,00 %
05.03.2019 07:24 5,2 C 4,4 C 3,9 C 87 % 1001,2 hPa 0,0 l/m 0 min 2 min 0 W/m 25,7 km/h (4 Bft) 100,00 %
05.03.2019 07:26 5,2 C 4,4 C 3,9 C 87 % 1001,1 hPa 0,0 l/m 0 min 0 min 0 W/m 16,1 km/h (3 Bft) 100,00 %
05.03.2019 07:28 5,2 C 4,4 C 3,9 C 87 % 1001,2 hPa 0,0 l/m 0 min 0 min 0 W/m 22,5 km/h (4 Bft) 100,00 %
05.03.2019 07:30 5,2 C 4,4 C 3,9 C 87 % 1001,2 hPa 0,0 l/m 0 min 0 min 3 W/m 41,8 km/h (6 Bft) 100,00 %
05.03.2019 07:32 5,1 C 4,4 C 3,9 C 88 % 1001,3 hPa 0,0 l/m 0 min 0 min 5 W/m 35,4 km/h (5 Bft) 100,00 %
05.03.2019 07:34 5,1 C 4,4 C 3,9 C 88 % 1001,3 hPa 0,0 l/m 0 min 0 min 5 W/m 32,2 km/h (5 Bft) 100,00 %
05.03.2019 07:36 5,1 C 4,4 C 3,9 C 88 % 1001,3 hPa 0,0 l/m 0 min 0 min 5 W/m 22,5 km/h (4 Bft) 97,87 %
05.03.2019 07:38 5,1 C 4,4 C 3,9 C 88 % 1001,3 hPa 0,0 l/m 0 min 2 min 5 W/m 12,9 km/h (3 Bft) 100,00 %
05.03.2019 07:40 5,0 C 4,4 C 3,9 C 88 % 1001,4 hPa 0,0 l/m 0 min 2 min 5 W/m 22,5 km/h (4 Bft) 97,83 %
05.03.2019 07:42 5,0 C 3,9 C 3,9 C 88 % 1001,4 hPa 0,0 l/m 0 min 2 min 6 W/m 22,5 km/h (4 Bft) 97,87 %
05.03.2019 07:44 4,9 C 3,9 C 3,3 C 88 % 1001,4 hPa 0,0 l/m 0 min 2 min 7 W/m 35,4 km/h (5 Bft) 97,87 %
05.03.2019 07:46 4,9 C 3,9 C 3,3 C 88 % 1001,5 hPa 0,0 l/m 0 min 2 min 9 W/m 29,0 km/h (5 Bft) 100,00 %
05.03.2019 07:48 4,9 C 3,9 C 3,3 C 88 % 1001,5 hPa 0,0 l/m 0 min 2 min 9 W/m 22,5 km/h (4 Bft) 100,00 %
05.03.2019 07:50 4,8 C 3,3 C 3,3 C 88 % 1001,5 hPa 0,0 l/m 0 min 2 min 11 W/m 29,0 km/h (5 Bft) 97,92 %
05.03.2019 07:52 4,8 C 3,3 C 2,8 C 88 % 1001,6 hPa 0,0 l/m 0 min 2 min 12 W/m 32,2 km/h (5 Bft) 97,96 %
05.03.2019 07:54 4,7 C 3,3 C 2,8 C 88 % 1001,5 hPa 0,0 l/m 0 min 2 min 12 W/m 35,4 km/h (5 Bft) 100,00 %
05.03.2019 07:56 4,7 C 3,3 C 2,8 C 89 % 1001,6 hPa 0,0 l/m 0 min 2 min 14 W/m 29,0 km/h (5 Bft) 97,87 %
05.03.2019 07:58 4,7 C 3,3 C 2,8 C 89 % 1001,6 hPa 0,0 l/m 0 min 2 min 16 W/m 12,9 km/h (3 Bft) 100,00 %
05.03.2019 08:00 4,6 C 3,3 C 2,8 C 89 % 1001,6 hPa 0,0 l/m 0 min 2 min 15 W/m 22,5 km/h (4 Bft) 97,87 %
05.03.2019 08:02 4,6 C 3,3 C 2,8 C 89 % 1001,6 hPa 0,0 l/m 0 min 2 min 14 W/m 29,0 km/h (5 Bft) 97,67 %
05.03.2019 08:04 4,6 C 3,3 C 2,8 C 89 % 1001,6 hPa 0,0 l/m 0 min 2 min 15 W/m 22,5 km/h (4 Bft) 95,74 %
05.03.2019 08:06 4,5 C 3,3 C 2,8 C 90 % 1001,7 hPa 0,0 l/m 0 min 2 min 19 W/m 22,5 km/h (4 Bft) 97,87 %
05.03.2019 08:08 4,5 C 3,3 C 2,8 C 90 % 1001,6 hPa 0,2 l/m 0 min 2 min 22 W/m 22,5 km/h (4 Bft) 97,96 %
05.03.2019 08:10 4,5 C 3,3 C 2,8 C 90 % 1001,6 hPa 0,0 l/m 0 min 2 min 26 W/m 19,3 km/h (3 Bft) 97,87 %
05.03.2019 08:12 4,4 C 3,3 C 2,8 C 90 % 1001,7 hPa 0,0 l/m 0 min 2 min 30 W/m 25,7 km/h (4 Bft) 93,88 %
05.03.2019 08:14 4,4 C 3,3 C 2,8 C 90 % 1001,7 hPa 0,0 l/m 0 min 2 min 30 W/m 35,4 km/h (5 Bft) 95,74 %
05.03.2019 08:16 4,4 C 3,3 C 2,8 C 90 % 1001,7 hPa 0,0 l/m 0 min 2 min 29 W/m 19,3 km/h (3 Bft) 95,74 %
05.03.2019 08:18 4,4 C 3,3 C 2,8 C 90 % 1001,9 hPa 0,0 l/m 0 min 2 min 26 W/m 29,0 km/h (5 Bft) 95,12 %
05.03.2019 08:20 4,4 C 3,3 C 2,8 C 91 % 1001,8 hPa 0,0 l/m 0 min 2 min 27 W/m 25,7 km/h (4 Bft) 95,92 %
05.03.2019 08:22 4,4 C 3,3 C 2,8 C 91 % 1001,9 hPa 0,0 l/m 0 min 2 min 27 W/m 32,2 km/h (5 Bft) 96,00 %
05.03.2019 08:24 4,4 C 3,3 C 2,8 C 91 % 1002,0 hPa 0,0 l/m 0 min 2 min 27 W/m 22,5 km/h (4 Bft) 95,74 %
05.03.2019 08:26 4,4 C 3,3 C 2,8 C 91 % 1001,9 hPa 0,0 l/m 0 min 2 min 26 W/m 41,8 km/h (6 Bft) 93,62 %
05.03.2019 08:28 4,3 C 3,3 C 2,8 C 91 % 1002,0 hPa 0,0 l/m 0 min 2 min 30 W/m 25,7 km/h (4 Bft) 95,74 %
05.03.2019 08:30 4,3 C 3,3 C 2,8 C 91 % 1001,9 hPa 0,0 l/m 0 min 2 min 40 W/m 25,7 km/h (4 Bft) 95,24 %
05.03.2019 08:32 4,3 C 3,3 C 2,8 C 91 % 1002,0 hPa 0,0 l/m 0 min 2 min 46 W/m 32,2 km/h (5 Bft) 96,00 %
05.03.2019 08:34 4,3 C 3,3 C 2,8 C 91 % 1001,9 hPa 0,0 l/m 0 min 2 min 42 W/m 29,0 km/h (5 Bft) 95,74 %
05.03.2019 08:36 4,3 C 3,3 C 3,3 C 91 % 1001,9 hPa 0,0 l/m 0 min 2 min 40 W/m 16,1 km/h (3 Bft) 95,83 %
05.03.2019 08:38 4,3 C 3,3 C 2,8 C 91 % 1002,0 hPa 0,0 l/m 0 min 2 min 46 W/m 41,8 km/h (6 Bft) 91,67 %
05.03.2019 08:40 4,3 C 3,3 C 2,8 C 91 % 1002,0 hPa 0,0 l/m 0 min 2 min 47 W/m 22,5 km/h (4 Bft) 95,74 %
05.03.2019 08:42 4,3 C 3,3 C 3,3 C 91 % 1002,0 hPa 0,0 l/m 0 min 2 min 54 W/m 19,3 km/h (3 Bft) 95,65 %
05.03.2019 08:44 4,3 C 3,3 C 2,8 C 91 % 1002,0 hPa 0,0 l/m 0 min 2 min 46 W/m 29,0 km/h (5 Bft) 95,74 %
05.03.2019 08:46 4,3 C 3,3 C 2,8 C 91 % 1002,1 hPa 0,0 l/m 0 min 2 min 38 W/m 25,7 km/h (4 Bft) 97,87 %
05.03.2019 08:48 4,3 C 3,3 C 2,8 C 91 % 1002,0 hPa 0,0 l/m 0 min 2 min 42 W/m 32,2 km/h (5 Bft) 97,62 %
05.03.2019 08:50 4,3 C 3,3 C 2,8 C 91 % 1002,0 hPa 0,0 l/m 0 min 2 min 44 W/m 29,0 km/h (5 Bft) 97,96 %
05.03.2019 08:52 4,3 C 3,3 C 2,8 C 91 % 1002,1 hPa 0,0 l/m 0 min 2 min 46 W/m 25,7 km/h (4 Bft) 98,00 %
05.03.2019 08:54 4,3 C 3,3 C 2,8 C 91 % 1002,1 hPa 0,0 l/m 0 min 2 min 50 W/m 12,9 km/h (3 Bft) 95,74 %
05.03.2019 08:56 4,3 C 3,9 C 2,8 C 92 % 1002,2 hPa 0,0 l/m 0 min 2 min 53 W/m 9,7 km/h (2 Bft) 97,83 %
05.03.2019 08:58 4,3 C 3,9 C 3,3 C 92 % 1002,2 hPa 0,0 l/m 0 min 2 min 54 W/m 19,3 km/h (3 Bft) 97,67 %
05.03.2019 09:00 4,3 C 3,9 C 3,3 C 92 % 1002,1 hPa 0,0 l/m 0 min 2 min 61 W/m 22,5 km/h (4 Bft) 97,83 %
05.03.2019 09:02 4,3 C 3,9 C 3,3 C 92 % 1002,2 hPa 0,0 l/m 0 min 2 min 52 W/m 19,3 km/h (3 Bft) 98,00 %
05.03.2019 09:04 4,4 C 3,9 C 3,3 C 92 % 1002,2 hPa 0,0 l/m 0 min 2 min 57 W/m 9,7 km/h (2 Bft) 100,00 %
05.03.2019 09:06 4,4 C 3,9 C 3,3 C 92 % 1002,2 hPa 0,0 l/m 0 min 2 min 49 W/m 19,3 km/h (3 Bft) 100,00 %
05.03.2019 09:08 4,4 C 3,9 C 3,3 C 92 % 1002,2 hPa 0,0 l/m 0 min 2 min 40 W/m 16,1 km/h (3 Bft) 97,96 %
05.03.2019 09:10 4,4 C 3,9 C 3,3 C 92 % 1002,3 hPa 0,0 l/m 0 min 2 min 28 W/m 12,9 km/h (3 Bft) 100,00 %
05.03.2019 09:12 4,4 C 3,9 C 3,3 C 92 % 1002,3 hPa 0,0 l/m 0 min 2 min 25 W/m 22,5 km/h (4 Bft) 100,00 %
05.03.2019 09:14 4,4 C 3,9 C 3,3 C 92 % 1002,3 hPa 0,0 l/m 0 min 2 min 31 W/m 16,1 km/h (3 Bft) 100,00 %
05.03.2019 09:16 4,4 C 3,9 C 3,3 C 92 % 1002,4 hPa 0,0 l/m 0 min 2 min 31 W/m 16,1 km/h (3 Bft) 100,00 %
05.03.2019 09:18 4,4 C 3,9 C 3,3 C 92 % 1002,4 hPa 0,0 l/m 0 min 2 min 44 W/m 12,9 km/h (3 Bft) 97,87 %
05.03.2019 09:20 4,4 C 4,4 C 3,3 C 92 % 1002,4 hPa 0,0 l/m 0 min 2 min 66 W/m 16,1 km/h (3 Bft) 97,87 %
05.03.2019 09:22 4,4 C 4,4 C 3,3 C 92 % 1002,4 hPa 0,0 l/m 0 min 2 min 79 W/m 12,9 km/h (3 Bft) 97,62 %
05.03.2019 09:24 4,5 C 4,4 C 3,9 C 92 % 1002,4 hPa 0,0 l/m 0 min 2 min 83 W/m 9,7 km/h (2 Bft) 97,87 %
05.03.2019 09:26 4,5 C 4,4 C 3,9 C 92 % 1002,5 hPa 0,0 l/m 0 min 2 min 68 W/m 16,1 km/h (3 Bft) 97,92 %
05.03.2019 09:28 4,6 C 4,4 C 3,9 C 92 % 1002,5 hPa 0,0 l/m 0 min 2 min 44 W/m 9,7 km/h (2 Bft) 97,96 %
05.03.2019 09:30 4,6 C 4,4 C 3,9 C 92 % 1002,5 hPa 0,0 l/m 0 min 2 min 50 W/m 29,0 km/h (5 Bft) 97,87 %
05.03.2019 09:32 4,6 C 4,4 C 3,9 C 92 % 1002,6 hPa 0,0 l/m 0 min 2 min 64 W/m 9,7 km/h (2 Bft) 97,92 %
05.03.2019 09:34 4,6 C 4,4 C 3,9 C 92 % 1002,6 hPa 0,0 l/m 0 min 2 min 48 W/m 16,1 km/h (3 Bft) 97,83 %
05.03.2019 09:36 4,6 C 4,4 C 3,9 C 92 % 1002,7 hPa 0,0 l/m 0 min 2 min 45 W/m 9,7 km/h (2 Bft) 98,11 %
05.03.2019 09:38 4,7 C 4,4 C 3,9 C 92 % 1002,7 hPa 0,0 l/m 0 min 2 min 43 W/m 12,9 km/h (3 Bft) 97,87 %
05.03.2019 09:40 4,7 C 4,4 C 3,9 C 92 % 1002,7 hPa 0,0 l/m 0 min 2 min 54 W/m 9,7 km/h (2 Bft) 97,30 %
05.03.2019 09:42 4,7 C 4,4 C 3,9 C 92 % 1002,7 hPa 0,0 l/m 0 min 0 min 52 W/m 6,4 km/h (2 Bft) 95,74 %
05.03.2019 09:44 4,7 C 4,4 C 3,9 C 92 % 1002,7 hPa 0,0 l/m 0 min 2 min 42 W/m 9,7 km/h (2 Bft) 97,87 %
05.03.2019 09:46 4,7 C 4,4 C 3,9 C 92 % 1002,8 hPa 0,0 l/m 0 min 0 min 49 W/m 16,1 km/h (3 Bft) 97,96 %
05.03.2019 09:48 4,7 C 4,4 C 3,9 C 92 % 1002,8 hPa 0,0 l/m 0 min 0 min 70 W/m 16,1 km/h (3 Bft) 97,92 %
05.03.2019 09:50 4,8 C 5,0 C 3,9 C 92 % 1002,8 hPa 0,0 l/m 0 min 0 min 52 W/m 12,9 km/h (3 Bft) 97,87 %
05.03.2019 09:52 4,8 C 5,0 C 3,9 C 92 % 1002,8 hPa 0,0 l/m 0 min 0 min 45 W/m 9,7 km/h (2 Bft) 97,87 %
05.03.2019 09:54 4,8 C 5,0 C 4,4 C 92 % 1002,8 hPa 0,0 l/m 0 min 0 min 60 W/m 19,3 km/h (3 Bft) 97,62 %
05.03.2019 09:56 4,8 C 5,0 C 4,4 C 92 % 1002,8 hPa 0,0 l/m 0 min 2 min 52 W/m 32,2 km/h (5 Bft) 97,96 %
05.03.2019 09:58 4,9 C 5,0 C 4,4 C 92 % 1002,8 hPa 0,0 l/m 0 min 0 min 47 W/m 12,9 km/h (3 Bft) 95,92 %
05.03.2019 10:00 4,9 C 5,0 C 4,4 C 92 % 1002,8 hPa 0,0 l/m 0 min 0 min 56 W/m 16,1 km/h (3 Bft) 97,87 %
05.03.2019 10:02 4,9 C 5,0 C 4,4 C 92 % 1002,8 hPa 0,0 l/m 0 min 0 min 70 W/m 9,7 km/h (2 Bft) 97,87 %
05.03.2019 10:04 4,9 C 5,0 C 4,4 C 92 % 1002,8 hPa 0,0 l/m 0 min 0 min 81 W/m 16,1 km/h (3 Bft) 97,87 %
05.03.2019 10:06 5,0 C 5,0 C 4,4 C 92 % 1002,8 hPa 0,0 l/m 0 min 0 min 92 W/m 12,9 km/h (3 Bft) 98,28 %
05.03.2019 10:08 5,0 C 5,6 C 5,0 C 92 % 1002,8 hPa 0,0 l/m 0 min 0 min 125 W/m 22,5 km/h (4 Bft) 94,74 %
05.03.2019 10:10 5,1 C 5,6 C 5,0 C 92 % 1002,8 hPa 0,0 l/m 0 min 0 min 130 W/m 29,0 km/h (5 Bft) 97,87 %
05.03.2019 10:12 5,1 C 5,6 C 5,0 C 92 % 1002,8 hPa 0,0 l/m 0 min 0 min 157 W/m 16,1 km/h (3 Bft) 97,87 %
05.03.2019 10:14 5,2 C 6,1 C 5,0 C 92 % 1002,9 hPa 0,0 l/m 0 min 0 min 138 W/m 9,7 km/h (2 Bft) 97,62 %
05.03.2019 10:16 5,3 C 6,1 C 5,6 C 92 % 1002,9 hPa 0,0 l/m 0 min 0 min 187 W/m 12,9 km/h (3 Bft) 97,96 %
05.03.2019 10:18 5,3 C 6,1 C 5,6 C 92 % 1002,9 hPa 0,0 l/m 0 min 0 min 153 W/m 12,9 km/h (3 Bft) 100,00 %
05.03.2019 10:20 5,4 C 6,1 C 5,6 C 92 % 1003,0 hPa 0,0 l/m 0 min 0 min 165 W/m 19,3 km/h (3 Bft) 100,00 %
05.03.2019 10:22 5,4 C 6,1 C 5,6 C 91 % 1003,0 hPa 0,0 l/m 0 min 0 min 162 W/m 16,1 km/h (3 Bft) 100,00 %
05.03.2019 10:24 5,5 C 6,1 C 5,6 C 91 % 1003,0 hPa 0,0 l/m 0 min 0 min 156 W/m 16,1 km/h (3 Bft) 100,00 %
05.03.2019 10:26 5,6 C 7,2 C 6,1 C 91 % 1003,0 hPa 0,0 l/m 0 min 0 min 208 W/m 25,7 km/h (4 Bft) 97,96 %
05.03.2019 10:28 5,7 C 7,2 C 6,1 C 91 % 1003,0 hPa 0,0 l/m 2 min 0 min 231 W/m 9,7 km/h (2 Bft) 100,00 %
05.03.2019 10:30 5,7 C 7,8 C 6,7 C 91 % 1003,0 hPa 0,0 l/m 2 min 0 min 248 W/m 12,9 km/h (3 Bft) 100,00 %
05.03.2019 10:32 5,8 C 7,8 C 6,7 C 91 % 1003,0 hPa 0,0 l/m 2 min 0 min 226 W/m 12,9 km/h (3 Bft) 100,00 %
05.03.2019 10:34 5,9 C 7,2 C 6,1 C 91 % 1003,0 hPa 0,0 l/m 0 min 0 min 171 W/m 12,9 km/h (3 Bft) 97,87 %
05.03.2019 10:36 6,0 C 7,2 C 6,1 C 90 % 1003,1 hPa 0,0 l/m 0 min 0 min 191 W/m 19,3 km/h (3 Bft) 98,31 %
05.03.2019 10:38 6,1 C 7,2 C 6,1 C 90 % 1003,0 hPa 0,0 l/m 0 min 0 min 186 W/m 9,7 km/h (2 Bft) 96,67 %
05.03.2019 10:40 6,1 C 7,2 C 6,1 C 90 % 1003,0 hPa 0,0 l/m 0 min 0 min 158 W/m 19,3 km/h (3 Bft) 100,00 %
05.03.2019 10:42 6,2 C 6,7 C 6,1 C 90 % 1003,0 hPa 0,0 l/m 0 min 0 min 139 W/m 16,1 km/h (3 Bft) 98,00 %
05.03.2019 10:44 6,2 C 6,7 C 6,1 C 89 % 1003,1 hPa 0,0 l/m 0 min 0 min 160 W/m 9,7 km/h (2 Bft) 97,92 %
05.03.2019 10:46 6,2 C 6,7 C 6,1 C 89 % 1003,1 hPa 0,0 l/m 0 min 0 min 141 W/m 22,5 km/h (4 Bft) 97,87 %
05.03.2019 10:48 6,3 C 6,7 C 6,1 C 89 % 1003,1 hPa 0,0 l/m 0 min 0 min 141 W/m 16,1 km/h (3 Bft) 93,62 %
05.03.2019 10:50 6,3 C 6,7 C 6,1 C 88 % 1003,1 hPa 0,0 l/m 0 min 0 min 125 W/m 16,1 km/h (3 Bft) 97,56 %
05.03.2019 10:52 6,3 C 6,7 C 6,1 C 88 % 1003,1 hPa 0,0 l/m 0 min 0 min 133 W/m 6,4 km/h (2 Bft) 96,00 %
05.03.2019 10:54 6,4 C 7,2 C 6,1 C 88 % 1003,1 hPa 0,0 l/m 0 min 0 min 197 W/m 9,7 km/h (2 Bft) 95,92 %
05.03.2019 10:56 6,4 C 7,2 C 6,7 C 88 % 1003,0 hPa 0,0 l/m 0 min 0 min 202 W/m 19,3 km/h (3 Bft) 95,74 %
05.03.2019 10:58 6,4 C 6,7 C 6,1 C 88 % 1003,0 hPa 0,0 l/m 0 min 0 min 144 W/m 25,7 km/h (4 Bft) 93,62 %
05.03.2019 11:00 6,5 C 7,2 C 6,7 C 87 % 1003,1 hPa 0,0 l/m 0 min 0 min 172 W/m 19,3 km/h (3 Bft) 95,74 %
05.03.2019 11:02 6,5 C 7,2 C 6,7 C 87 % 1003,0 hPa 0,0 l/m 0 min 0 min 195 W/m 16,1 km/h (3 Bft) 95,24 %
05.03.2019 11:04 6,6 C 7,2 C 6,7 C 87 % 1003,1 hPa 0,0 l/m 0 min 0 min 211 W/m 19,3 km/h (3 Bft) 95,74 %
05.03.2019 11:06 6,6 C 7,8 C 6,7 C 87 % 1003,1 hPa 0,0 l/m 0 min 0 min 237 W/m 16,1 km/h (3 Bft) 89,36 %
05.03.2019 11:08 6,7 C 7,8 C 6,7 C 86 % 1003,1 hPa 0,0 l/m 0 min 0 min 168 W/m 9,7 km/h (2 Bft) 97,96 %
05.03.2019 11:10 6,7 C 7,2 C 6,7 C 86 % 1003,0 hPa 0,0 l/m 0 min 0 min 156 W/m 19,3 km/h (3 Bft) 95,65 %
05.03.2019 11:12 6,8 C 7,2 C 6,7 C 86 % 1003,3 hPa 0,0 l/m 0 min 0 min 147 W/m 25,7 km/h (4 Bft) 96,00 %
05.03.2019 11:14 6,8 C 7,2 C 6,7 C 85 % 1003,3 hPa 0,0 l/m 0 min 0 min 163 W/m 19,3 km/h (3 Bft) 95,74 %
05.03.2019 11:16 6,8 C 7,2 C 6,7 C 84 % 1003,3 hPa 0,0 l/m 0 min 0 min 168 W/m 16,1 km/h (3 Bft) 97,83 %
05.03.2019 11:18 6,9 C 6,7 C 6,7 C 84 % 1003,2 hPa 0,0 l/m 0 min 0 min 125 W/m 19,3 km/h (3 Bft) 95,24 %
05.03.2019 11:20 6,9 C 6,7 C 6,1 C 84 % 1003,3 hPa 0,0 l/m 0 min 0 min 118 W/m 29,0 km/h (5 Bft) 95,83 %
05.03.2019 11:22 6,9 C 6,7 C 6,1 C 84 % 1003,3 hPa 0,0 l/m 0 min 0 min 128 W/m 16,1 km/h (3 Bft) 94,00 %
05.03.2019 11:24 6,9 C 7,2 C 6,7 C 83 % 1003,2 hPa 0,0 l/m 0 min 0 min 149 W/m 25,7 km/h (4 Bft) 95,83 %
05.03.2019 11:26 7,0 C 7,2 C 6,7 C 83 % 1003,3 hPa 0,0 l/m 0 min 0 min 196 W/m 16,1 km/h (3 Bft) 95,74 %
05.03.2019 11:28 7,1 C 7,2 C 6,7 C 82 % 1003,3 hPa 0,0 l/m 0 min 0 min 199 W/m 16,1 km/h (3 Bft) 97,83 %
05.03.2019 11:30 7,1 C 7,8 C 7,2 C 82 % 1003,4 hPa 0,0 l/m 0 min 0 min 214 W/m 12,9 km/h (3 Bft) 97,87 %
05.03.2019 11:32 7,2 C 7,8 C 7,2 C 82 % 1003,4 hPa 0,0 l/m 0 min 0 min 228 W/m 9,7 km/h (2 Bft) 95,35 %
05.03.2019 11:34 7,2 C 8,3 C 7,2 C 82 % 1003,4 hPa 0,0 l/m 2 min 0 min 264 W/m 19,3 km/h (3 Bft) 97,87 %
05.03.2019 11:36 7,4 C 7,8 C 7,2 C 81 % 1003,3 hPa 0,0 l/m 0 min 0 min 244 W/m 19,3 km/h (3 Bft) 95,92 %
05.03.2019 11:38 7,4 C 8,3 C 7,2 C 81 % 1003,4 hPa 0,0 l/m 0 min 0 min 197 W/m 16,1 km/h (3 Bft) 97,96 %
05.03.2019 11:40 7,4 C 7,8 C 7,2 C 81 % 1003,3 hPa 0,0 l/m 0 min 0 min 177 W/m 19,3 km/h (3 Bft) 93,62 %
05.03.2019 11:42 7,4 C 8,3 C 7,2 C 81 % 1003,4 hPa 0,0 l/m 0 min 0 min 188 W/m 16,1 km/h (3 Bft) 97,92 %
05.03.2019 11:44 7,4 C 7,8 C 7,2 C 81 % 1003,5 hPa 0,0 l/m 0 min 0 min 112 W/m 12,9 km/h (3 Bft) 97,87 %
05.03.2019 11:46 7,4 C 7,8 C 7,2 C 81 % 1003,4 hPa 0,0 l/m 0 min 0 min 98 W/m 6,4 km/h (2 Bft) 97,87 %
05.03.2019 11:48 7,4 C 7,8 C 7,2 C 82 % 1003,4 hPa 0,0 l/m 0 min 0 min 114 W/m 6,4 km/h (2 Bft) 97,62 %
05.03.2019 11:50 7,4 C 7,8 C 7,2 C 82 % 1003,4 hPa 0,0 l/m 0 min 0 min 177 W/m 6,4 km/h (2 Bft) 97,96 %
05.03.2019 11:52 7,5 C 7,8 C 7,2 C 82 % 1003,4 hPa 0,0 l/m 0 min 0 min 177 W/m 12,9 km/h (3 Bft) 97,87 %
05.03.2019 11:54 7,5 C 7,8 C 7,2 C 81 % 1003,5 hPa 0,0 l/m 0 min 0 min 142 W/m 22,5 km/h (4 Bft) 95,83 %
05.03.2019 11:56 7,6 C 7,8 C 7,2 C 81 % 1003,4 hPa 0,0 l/m 0 min 0 min 138 W/m 12,9 km/h (3 Bft) 97,92 %
05.03.2019 11:58 7,7 C 8,3 C 7,8 C 81 % 1003,4 hPa 0,0 l/m 0 min 0 min 162 W/m 16,1 km/h (3 Bft) 97,87 %
05.03.2019 12:00 7,7 C 10,0 C 7,8 C 81 % 1003,5 hPa 0,0 l/m 0 min 0 min 217 W/m 22,5 km/h (4 Bft) 100,00 %
05.03.2019 12:02 7,9 C 10,6 C 8,3 C 80 % 1003,5 hPa 0,0 l/m 2 min 0 min 509 W/m 9,7 km/h (2 Bft) 97,87 %
05.03.2019 12:04 8,1 C 9,4 C 8,3 C 80 % 1003,5 hPa 0,0 l/m 2 min 0 min 482 W/m 22,5 km/h (4 Bft) 100,00 %
05.03.2019 12:07 8,0 C 8,3 C 7,8 C 78 % 1003,5 hPa 0,0 l/m 0 min 0 min 163 W/m 32,2 km/h (5 Bft) 100,00 %
05.03.2019 12:08 8,0 C 8,9 C 7,8 C 79 % 1003,5 hPa 0,0 l/m 0 min 0 min 248 W/m 22,5 km/h (4 Bft) 100,00 %
05.03.2019 12:10 8,0 C 8,9 C 7,8 C 79 % 1003,5 hPa 0,0 l/m 0 min 0 min 201 W/m 22,5 km/h (4 Bft) 100,00 %
05.03.2019 12:12 7,9 C 8,3 C 7,8 C 80 % 1003,5 hPa 0,0 l/m 0 min 0 min 193 W/m 22,5 km/h (4 Bft) 100,00 %
05.03.2019 12:15 7,9 C 8,3 C 7,8 C 80 % 1003,6 hPa 0,0 l/m 0 min 0 min 149 W/m 16,1 km/h (3 Bft) 100,00 %
05.03.2019 12:16 7,9 C 7,8 C 7,8 C 80 % 1003,6 hPa 0,0 l/m 0 min 0 min 107 W/m 25,7 km/h (4 Bft) 100,00 %
05.03.2019 12:18 7,8 C 7,8 C 7,2 C 80 % 1003,6 hPa 0,0 l/m 0 min 0 min 102 W/m 22,5 km/h (4 Bft) 100,00 %
05.03.2019 12:20 7,7 C 7,8 C 7,2 C 81 % 1003,6 hPa 0,0 l/m 0 min 0 min 129 W/m 16,1 km/h (3 Bft) 97,56 %
05.03.2019 12:22 7,7 C 8,3 C 7,8 C 81 % 1003,6 hPa 0,0 l/m 0 min 0 min 176 W/m 12,9 km/h (3 Bft) 96,00 %
05.03.2019 12:24 7,8 C 8,3 C 7,2 C 81 % 1003,6 hPa 0,0 l/m 0 min 0 min 135 W/m 6,4 km/h (2 Bft) 97,96 %
05.03.2019 12:26 7,8 C 8,9 C 7,8 C 82 % 1003,7 hPa 0,0 l/m 0 min 0 min 202 W/m 6,4 km/h (2 Bft) 97,87 %
05.03.2019 12:28 7,9 C 9,4 C 8,3 C 82 % 1003,6 hPa 0,0 l/m 0 min 0 min 266 W/m 16,1 km/h (3 Bft) 97,87 %
05.03.2019 12:30 8,0 C 8,9 C 8,3 C 81 % 1003,7 hPa 0,0 l/m 0 min 0 min 251 W/m 12,9 km/h (3 Bft) 95,74 %
05.03.2019 12:32 8,1 C 9,4 C 8,9 C 82 % 1003,7 hPa 0,0 l/m 0 min 0 min 259 W/m 9,7 km/h (2 Bft) 97,87 %
05.03.2019 12:34 8,1 C 9,4 C 8,9 C 82 % 1003,7 hPa 0,0 l/m 2 min 0 min 304 W/m 19,3 km/h (3 Bft) 95,74 %
05.03.2019 12:36 8,2 C 9,4 C 8,9 C 81 % 1003,7 hPa 0,0 l/m 2 min 0 min 315 W/m 22,5 km/h (4 Bft) 95,74 %
05.03.2019 12:38 8,2 C 10,0 C 9,4 C 81 % 1003,7 hPa 0,0 l/m 2 min 0 min 297 W/m 22,5 km/h (4 Bft) 97,83 %
05.03.2019 12:40 8,2 C 9,4 C 8,9 C 80 % 1003,8 hPa 0,0 l/m 0 min 0 min 249 W/m 22,5 km/h (4 Bft) 95,74 %
05.03.2019 12:42 8,3 C 9,4 C 8,9 C 80 % 1003,8 hPa 0,0 l/m 0 min 0 min 206 W/m 16,1 km/h (3 Bft) 97,67 %
05.03.2019 12:44 8,3 C 8,9 C 8,3 C 79 % 1003,8 hPa 0,0 l/m 0 min 0 min 203 W/m 19,3 km/h (3 Bft) 93,88 %
05.03.2019 12:46 8,3 C 8,3 C 7,8 C 79 % 1003,9 hPa 0,0 l/m 0 min 0 min 140 W/m 19,3 km/h (3 Bft) 97,96 %
05.03.2019 12:48 8,3 C 8,3 C 7,8 C 79 % 1003,8 hPa 0,0 l/m 0 min 0 min 127 W/m 12,9 km/h (3 Bft) 97,87 %
05.03.2019 12:50 8,3 C 8,3 C 7,8 C 79 % 1003,8 hPa 0,0 l/m 0 min 0 min 112 W/m 9,7 km/h (2 Bft) 97,83 %
05.03.2019 12:52 8,3 C 8,3 C 7,8 C 79 % 1003,8 hPa 0,0 l/m 0 min 0 min 128 W/m 16,1 km/h (3 Bft) 97,67 %
05.03.2019 12:54 8,3 C 8,3 C 7,8 C 79 % 1003,8 hPa 0,0 l/m 0 min 0 min 96 W/m 9,7 km/h (2 Bft) 97,92 %
05.03.2019 12:56 8,3 C 8,3 C 7,8 C 79 % 1003,9 hPa 0,0 l/m 0 min 0 min 114 W/m 16,1 km/h (3 Bft) 97,96 %
05.03.2019 12:58 8,3 C 9,4 C 8,3 C 79 % 1003,9 hPa 0,0 l/m 0 min 0 min 172 W/m 9,7 km/h (2 Bft) 97,92 %
05.03.2019 13:00 8,3 C 9,4 C 8,3 C 79 % 1003,9 hPa 0,0 l/m 0 min 0 min 184 W/m 16,1 km/h (3 Bft) 97,87 %
05.03.2019 13:02 8,3 C 9,4 C 8,3 C 79 % 1003,9 hPa 0,0 l/m 0 min 0 min 186 W/m 16,1 km/h (3 Bft) 95,65 %
05.03.2019 13:04 8,3 C 9,4 C 8,3 C 79 % 1003,9 hPa 0,0 l/m 0 min 0 min 201 W/m 16,1 km/h (3 Bft) 97,87 %
05.03.2019 13:06 8,3 C 9,4 C 8,9 C 79 % 1004,0 hPa 0,0 l/m 0 min 0 min 212 W/m 22,5 km/h (4 Bft) 97,87 %
05.03.2019 13:08 8,4 C 10,0 C 8,9 C 79 % 1004,0 hPa 0,0 l/m 0 min 0 min 227 W/m 22,5 km/h (4 Bft) 97,62 %
05.03.2019 13:10 8,4 C 9,4 C 8,9 C 79 % 1004,1 hPa 0,0 l/m 0 min 0 min 212 W/m 12,9 km/h (3 Bft) 97,87 %
05.03.2019 13:12 8,4 C 9,4 C 8,3 C 79 % 1004,1 hPa 0,0 l/m 0 min 0 min 151 W/m 12,9 km/h (3 Bft) 98,00 %
05.03.2019 13:14 8,5 C 11,1 C 10,0 C 80 % 1004,0 hPa 0,0 l/m 0 min 0 min 242 W/m 12,9 km/h (3 Bft) 97,92 %
05.03.2019 13:16 8,6 C 12,8 C 11,7 C 80 % 1004,0 hPa 0,0 l/m 0 min 0 min 262 W/m 16,1 km/h (3 Bft) 97,87 %
05.03.2019 13:18 8,7 C 12,8 C 12,2 C 80 % 1004,0 hPa 0,0 l/m 2 min 0 min 626 W/m 19,3 km/h (3 Bft) 97,87 %
05.03.2019 13:20 8,8 C 11,7 C 10,6 C 80 % 1004,1 hPa 0,0 l/m 0 min 0 min 158 W/m 19,3 km/h (3 Bft) 97,87 %
05.03.2019 13:22 8,8 C 10,0 C 9,4 C 79 % 1004,1 hPa 0,0 l/m 0 min 0 min 144 W/m 16,1 km/h (3 Bft) 95,74 %
05.03.2019 13:24 8,8 C 10,0 C 8,9 C 79 % 1004,1 hPa 0,0 l/m 0 min 0 min 190 W/m 9,7 km/h (2 Bft) 100,00 %
05.03.2019 13:26 8,9 C 10,0 C 8,9 C 79 % 1004,1 hPa 0,0 l/m 2 min 0 min 288 W/m 16,1 km/h (3 Bft) 95,92 %
05.03.2019 13:28 8,9 C 12,2 C 11,1 C 79 % 1004,1 hPa 0,0 l/m 2 min 0 min 292 W/m 16,1 km/h (3 Bft) 97,96 %
05.03.2019 13:30 9,0 C 13,9 C 12,2 C 79 % 1004,1 hPa 0,0 l/m 2 min 0 min 302 W/m 9,7 km/h (2 Bft) 97,92 %
05.03.2019 13:32 9,1 C 13,9 C 12,2 C 79 % 1004,1 hPa 0,0 l/m 2 min 0 min 541 W/m 12,9 km/h (3 Bft) 97,87 %
05.03.2019 13:34 9,3 C 15,0 C 13,3 C 79 % 1004,0 hPa 0,0 l/m 2 min 0 min 540 W/m 19,3 km/h (3 Bft) 97,87 %
05.03.2019 13:36 9,4 C 13,9 C 12,8 C 78 % 1004,0 hPa 0,0 l/m 2 min 0 min 705 W/m 25,7 km/h (4 Bft) 92,86 %
05.03.2019 13:38 9,5 C 12,2 C 11,1 C 78 % 1004,0 hPa 0,0 l/m 0 min 0 min 210 W/m 29,0 km/h (5 Bft) 97,87 %
05.03.2019 13:40 9,6 C 13,3 C 10,6 C 77 % 1004,0 hPa 0,0 l/m 0 min 0 min 204 W/m 16,1 km/h (3 Bft) 97,87 %
05.03.2019 13:42 9,7 C 14,4 C 10,6 C 77 % 1004,0 hPa 0,0 l/m 2 min 0 min 681 W/m 19,3 km/h (3 Bft) 95,92 %
05.03.2019 13:44 9,8 C 15,0 C 10,6 C 77 % 1004,1 hPa 0,0 l/m 2 min 0 min 534 W/m 19,3 km/h (3 Bft) 100,00 %
05.03.2019 13:46 9,9 C 15,0 C 10,6 C 76 % 1004,2 hPa 0,0 l/m 2 min 0 min 722 W/m 25,7 km/h (4 Bft) 97,87 %
05.03.2019 13:48 9,9 C 13,9 C 10,0 C 76 % 1004,1 hPa 0,0 l/m 2 min 0 min 694 W/m 32,2 km/h (5 Bft) 97,83 %
05.03.2019 13:50 10,1 C 13,9 C 10,0 C 75 % 1004,2 hPa 0,0 l/m 2 min 0 min 658 W/m 22,5 km/h (4 Bft) 100,00 %
05.03.2019 13:52 10,1 C 11,7 C 9,4 C 75 % 1004,1 hPa 0,0 l/m 2 min 0 min 454 W/m 25,7 km/h (4 Bft) 100,00 %
05.03.2019 13:54 10,1 C 10,6 C 8,9 C 74 % 1004,2 hPa 0,0 l/m 0 min 0 min 100 W/m 16,1 km/h (3 Bft) 100,00 %
05.03.2019 13:56 10,0 C 12,2 C 8,9 C 74 % 1004,2 hPa 0,0 l/m 0 min 0 min 252 W/m 25,7 km/h (4 Bft) 95,83 %
05.03.2019 13:58 9,9 C 13,3 C 8,9 C 73 % 1004,2 hPa 0,0 l/m 2 min 0 min 603 W/m 22,5 km/h (4 Bft) 100,00 %
05.03.2019 14:00 9,9 C 14,4 C 9,4 C 73 % 1004,2 hPa 0,0 l/m 2 min 0 min 605 W/m 16,1 km/h (3 Bft) 100,00 %
05.03.2019 14:02 10,0 C 13,9 C 9,4 C 73 % 1004,2 hPa 0,0 l/m 2 min 0 min 582 W/m 22,5 km/h (4 Bft) 100,00 %
05.03.2019 14:04 10,0 C 13,9 C 9,4 C 71 % 1004,2 hPa 0,0 l/m 2 min 0 min 588 W/m 16,1 km/h (3 Bft) 100,00 %
05.03.2019 14:06 10,1 C 13,9 C 9,4 C 72 % 1004,4 hPa 0,0 l/m 2 min 0 min 601 W/m 25,7 km/h (4 Bft) 100,00 %
05.03.2019 14:08 10,1 C 14,4 C 9,4 C 71 % 1004,3 hPa 0,0 l/m 2 min 0 min 604 W/m 29,0 km/h (5 Bft) 97,96 %
05.03.2019 14:10 10,2 C 16,1 C 10,0 C 72 % 1004,3 hPa 0,0 l/m 2 min 0 min 658 W/m 25,7 km/h (4 Bft) 100,00 %
05.03.2019 14:12 10,3 C 15,0 C 10,6 C 72 % 1004,3 hPa 0,0 l/m 2 min 0 min 693 W/m 9,7 km/h (2 Bft) 100,00 %
05.03.2019 14:14 10,4 C 16,1 C 10,6 C 73 % 1004,3 hPa 0,0 l/m 2 min 0 min 692 W/m 19,3 km/h (3 Bft) 100,00 %
05.03.2019 14:16 10,5 C 16,1 C 10,6 C 73 % 1004,3 hPa 0,0 l/m 2 min 0 min 695 W/m 9,7 km/h (2 Bft) 100,00 %
05.03.2019 14:18 10,7 C 16,7 C 11,1 C 73 % 1004,3 hPa 0,0 l/m 2 min 0 min 504 W/m 9,7 km/h (2 Bft) 100,00 %
05.03.2019 14:20 10,7 C 14,4 C 11,1 C 73 % 1004,3 hPa 0,0 l/m 2 min 0 min 587 W/m 9,7 km/h (2 Bft) 100,00 %
05.03.2019 14:22 10,8 C 12,8 C 10,6 C 72 % 1004,3 hPa 0,0 l/m 0 min 0 min 178 W/m 22,5 km/h (4 Bft) 97,87 %
05.03.2019 14:24 10,8 C 11,7 C 10,0 C 71 % 1004,3 hPa 0,0 l/m 0 min 0 min 181 W/m 16,1 km/h (3 Bft) 100,00 %
05.03.2019 14:26 10,7 C 10,6 C 10,0 C 70 % 1004,3 hPa 0,0 l/m 0 min 0 min 170 W/m 22,5 km/h (4 Bft) 100,00 %
05.03.2019 14:28 10,6 C 10,0 C 9,4 C 70 % 1004,3 hPa 0,0 l/m 0 min 0 min 156 W/m 22,5 km/h (4 Bft) 100,00 %
05.03.2019 14:30 10,5 C 10,0 C 9,4 C 69 % 1004,3 hPa 0,0 l/m 0 min 0 min 169 W/m 19,3 km/h (3 Bft) 100,00 %
05.03.2019 14:32 10,4 C 9,4 C 8,9 C 70 % 1004,4 hPa 0,0 l/m 0 min 0 min 199 W/m 19,3 km/h (3 Bft) 100,00 %
05.03.2019 14:34 10,2 C 10,0 C 9,4 C 70 % 1004,4 hPa 0,0 l/m 0 min 0 min 226 W/m 19,3 km/h (3 Bft) 100,00 %
05.03.2019 14:36 10,2 C 12,8 C 10,0 C 71 % 1004,5 hPa 0,0 l/m 2 min 0 min 512 W/m 25,7 km/h (4 Bft) 100,00 %
05.03.2019 14:38 10,2 C 13,9 C 10,0 C 71 % 1004,5 hPa 0,0 l/m 2 min 0 min 480 W/m 22,5 km/h (4 Bft) 100,00 %
05.03.2019 14:40 10,2 C 13,9 C 10,0 C 71 % 1004,6 hPa 0,0 l/m 2 min 0 min 630 W/m 22,5 km/h (4 Bft) 100,00 %
05.03.2019 14:42 10,2 C 13,9 C 10,0 C 71 % 1004,6 hPa 0,0 l/m 2 min 0 min 604 W/m 25,7 km/h (4 Bft) 100,00 %
05.03.2019 14:44 10,3 C 14,4 C 10,0 C 71 % 1004,6 hPa 0,0 l/m 2 min 0 min 614 W/m 22,5 km/h (4 Bft) 100,00 %
05.03.2019 14:46 10,3 C 15,0 C 10,0 C 71 % 1004,6 hPa 0,0 l/m 2 min 0 min 614 W/m 19,3 km/h (3 Bft) 95,65 %
05.03.2019 14:48 10,4 C 15,0 C 10,6 C 72 % 1004,6 hPa 0,0 l/m 2 min 0 min 599 W/m 19,3 km/h (3 Bft) 93,62 %
05.03.2019 14:50 10,5 C 14,4 C 10,0 C 71 % 1004,6 hPa 0,0 l/m 2 min 0 min 597 W/m 22,5 km/h (4 Bft) 95,24 %
05.03.2019 14:52 10,6 C 14,4 C 10,6 C 71 % 1004,7 hPa 0,0 l/m 2 min 0 min 623 W/m 9,7 km/h (2 Bft) 97,96 %
05.03.2019 14:54 10,7 C 13,9 C 10,0 C 70 % 1004,8 hPa 0,0 l/m 2 min 0 min 451 W/m 25,7 km/h (4 Bft) 95,92 %
05.03.2019 14:56 10,7 C 13,9 C 10,6 C 69 % 1004,8 hPa 0,0 l/m 2 min 0 min 330 W/m 16,1 km/h (3 Bft) 93,75 %
05.03.2019 14:58 10,8 C 15,0 C 10,6 C 70 % 1004,7 hPa 0,0 l/m 2 min 0 min 451 W/m 22,5 km/h (4 Bft) 95,74 %
05.03.2019 15:00 10,8 C 15,0 C 11,1 C 69 % 1004,8 hPa 0,0 l/m 2 min 0 min 448 W/m 16,1 km/h (3 Bft) 97,83 %
05.03.2019 15:02 10,9 C 15,6 C 11,1 C 70 % 1004,8 hPa 0,0 l/m 2 min 0 min 445 W/m 22,5 km/h (4 Bft) 93,62 %
05.03.2019 15:04 10,9 C 13,3 C 10,6 C 69 % 1004,8 hPa 0,0 l/m 2 min 0 min 600 W/m 22,5 km/h (4 Bft) 95,74 %
05.03.2019 15:06 10,9 C 12,2 C 10,0 C 68 % 1004,9 hPa 0,0 l/m 2 min 0 min 213 W/m 19,3 km/h (3 Bft) 97,87 %
05.03.2019 15:08 10,8 C 12,8 C 10,0 C 69 % 1004,8 hPa 0,0 l/m 0 min 0 min 192 W/m 12,9 km/h (3 Bft) 95,74 %
05.03.2019 15:10 10,8 C 13,9 C 10,0 C 70 % 1004,9 hPa 0,0 l/m 2 min 0 min 542 W/m 19,3 km/h (3 Bft) 95,65 %
05.03.2019 15:12 10,9 C 15,0 C 10,6 C 69 % 1004,9 hPa 0,0 l/m 2 min 0 min 554 W/m 16,1 km/h (3 Bft) 97,67 %
05.03.2019 15:14 10,9 C 13,3 C 10,0 C 69 % 1005,0 hPa 0,0 l/m 2 min 0 min 462 W/m 19,3 km/h (3 Bft) 95,83 %
05.03.2019 15:16 10,9 C 14,4 C 10,0 C 69 % 1005,0 hPa 0,0 l/m 2 min 0 min 465 W/m 16,1 km/h (3 Bft) 95,92 %
05.03.2019 15:18 10,9 C 14,4 C 10,0 C 70 % 1005,1 hPa 0,0 l/m 2 min 0 min 468 W/m 16,1 km/h (3 Bft) 95,83 %
05.03.2019 15:20 10,9 C 14,4 C 10,0 C 70 % 1005,0 hPa 0,0 l/m 2 min 0 min 452 W/m 16,1 km/h (3 Bft) 97,87 %
05.03.2019 15:22 10,9 C 14,4 C 10,0 C 70 % 1004,9 hPa 0,0 l/m 2 min 0 min 441 W/m 16,1 km/h (3 Bft) 95,12 %
05.03.2019 15:24 10,9 C 14,4 C 10,0 C 70 % 1005,0 hPa 0,0 l/m 2 min 0 min 432 W/m 12,9 km/h (3 Bft) 91,84 %
05.03.2019 15:26 10,9 C 13,9 C 10,0 C 70 % 1005,0 hPa 0,0 l/m 2 min 0 min 430 W/m 12,9 km/h (3 Bft) 91,67 %
05.03.2019 15:28 10,9 C 14,4 C 10,0 C 70 % 1005,0 hPa 0,0 l/m 2 min 0 min 427 W/m 9,7 km/h (2 Bft) 93,88 %
05.03.2019 15:30 10,9 C 14,4 C 10,0 C 70 % 1005,0 hPa 0,0 l/m 2 min 0 min 426 W/m 16,1 km/h (3 Bft) 95,74 %
05.03.2019 15:32 10,9 C 14,4 C 10,0 C 70 % 1005,0 hPa 0,0 l/m 2 min 0 min 423 W/m 12,9 km/h (3 Bft) 95,74 %
05.03.2019 15:34 10,9 C 14,4 C 10,0 C 71 % 1005,0 hPa 0,0 l/m 2 min 0 min 420 W/m 16,1 km/h (3 Bft) 95,24 %
05.03.2019 15:36 11,0 C 15,0 C 10,0 C 71 % 1005,1 hPa 0,0 l/m 2 min 0 min 244 W/m 9,7 km/h (2 Bft) 95,92 %
05.03.2019 15:38 11,0 C 15,6 C 10,0 C 71 % 1005,0 hPa 0,0 l/m 2 min 0 min 402 W/m 12,9 km/h (3 Bft) 93,75 %
05.03.2019 15:40 11,0 C 12,2 C 9,4 C 70 % 1005,1 hPa 0,0 l/m 2 min 0 min 238 W/m 16,1 km/h (3 Bft) 95,74 %
05.03.2019 15:42 10,9 C 11,1 C 9,4 C 70 % 1005,1 hPa 0,0 l/m 0 min 0 min 63 W/m 9,7 km/h (2 Bft) 93,75 %
05.03.2019 15:44 10,9 C 10,6 C 8,9 C 70 % 1005,1 hPa 0,0 l/m 0 min 0 min 67 W/m 9,7 km/h (2 Bft) 95,74 %
05.03.2019 15:46 10,8 C 10,0 C 8,9 C 70 % 1005,0 hPa 0,0 l/m 0 min 0 min 90 W/m 12,9 km/h (3 Bft) 95,12 %
05.03.2019 15:48 10,7 C 10,0 C 8,9 C 70 % 1005,1 hPa 0,0 l/m 0 min 0 min 139 W/m 16,1 km/h (3 Bft) 97,96 %
05.03.2019 15:50 10,6 C 12,2 C 9,4 C 69 % 1005,1 hPa 0,0 l/m 2 min 0 min 327 W/m 19,3 km/h (3 Bft) 95,83 %
05.03.2019 15:52 10,6 C 13,3 C 10,0 C 69 % 1005,1 hPa 0,0 l/m 2 min 0 min 355 W/m 19,3 km/h (3 Bft) 93,88 %
05.03.2019 15:54 10,6 C 13,9 C 10,6 C 68 % 1005,0 hPa 0,0 l/m 2 min 0 min 351 W/m 19,3 km/h (3 Bft) 95,74 %
05.03.2019 15:56 10,6 C 14,4 C 11,1 C 68 % 1005,1 hPa 0,0 l/m 2 min 0 min 462 W/m 16,1 km/h (3 Bft) 93,48 %
05.03.2019 15:58 10,7 C 13,9 C 10,6 C 68 % 1005,1 hPa 0,0 l/m 2 min 0 min 442 W/m 19,3 km/h (3 Bft) 95,45 %
05.03.2019 16:00 10,7 C 12,8 C 10,6 C 67 % 1005,1 hPa 0,0 l/m 2 min 0 min 269 W/m 16,1 km/h (3 Bft) 95,74 %
05.03.2019 16:02 10,8 C 13,3 C 11,1 C 68 % 1005,2 hPa 0,0 l/m 2 min 0 min 360 W/m 12,9 km/h (3 Bft) 97,83 %
05.03.2019 16:04 10,8 C 12,2 C 11,1 C 68 % 1005,2 hPa 0,0 l/m 2 min 0 min 351 W/m 25,7 km/h (4 Bft) 97,87 %
05.03.2019 16:06 10,8 C 11,1 C 10,0 C 67 % 1005,2 hPa 0,0 l/m 0 min 0 min 92 W/m 22,5 km/h (4 Bft) 98,00 %
05.03.2019 16:08 10,8 C 10,6 C 9,4 C 67 % 1005,2 hPa 0,0 l/m 0 min 0 min 84 W/m 6,4 km/h (2 Bft) 97,87 %
05.03.2019 16:10 10,7 C 11,1 C 10,6 C 68 % 1005,2 hPa 0,0 l/m 2 min 0 min 210 W/m 12,9 km/h (3 Bft) 95,74 %
05.03.2019 16:12 10,7 C 11,1 C 10,6 C 68 % 1005,2 hPa 0,0 l/m 0 min 0 min 151 W/m 9,7 km/h (2 Bft) 95,74 %
05.03.2019 16:14 10,7 C 12,2 C 11,7 C 68 % 1005,1 hPa 0,0 l/m 2 min 0 min 210 W/m 9,7 km/h (2 Bft) 97,87 %
05.03.2019 16:16 10,7 C 13,3 C 12,8 C 68 % 1005,1 hPa 0,0 l/m 2 min 0 min 348 W/m 9,7 km/h (2 Bft) 97,56 %
05.03.2019 16:18 10,7 C 13,9 C 13,3 C 69 % 1005,1 hPa 0,0 l/m 2 min 0 min 344 W/m 9,7 km/h (2 Bft) 95,92 %
05.03.2019 16:20 10,7 C 13,9 C 13,3 C 68 % 1005,0 hPa 0,0 l/m 2 min 0 min 354 W/m 16,1 km/h (3 Bft) 95,92 %
05.03.2019 16:22 10,7 C 13,9 C 13,3 C 67 % 1005,0 hPa 0,0 l/m 2 min 0 min 361 W/m 19,3 km/h (3 Bft) 95,83 %
05.03.2019 16:24 10,7 C 11,7 C 11,1 C 66 % 1005,0 hPa 0,0 l/m 2 min 0 min 251 W/m 19,3 km/h (3 Bft) 95,74 %
05.03.2019 16:26 10,7 C 10,6 C 10,0 C 66 % 1005,1 hPa 0,0 l/m 0 min 0 min 88 W/m 12,9 km/h (3 Bft) 95,74 %
05.03.2019 16:28 10,6 C 10,0 C 9,4 C 66 % 1005,1 hPa 0,0 l/m 0 min 0 min 99 W/m 16,1 km/h (3 Bft) 97,62 %
05.03.2019 16:30 10,6 C 11,1 C 9,4 C 66 % 1005,1 hPa 0,0 l/m 2 min 0 min 133 W/m 12,9 km/h (3 Bft) 97,96 %
05.03.2019 16:32 10,6 C 11,7 C 9,4 C 66 % 1005,1 hPa 0,0 l/m 2 min 0 min 204 W/m 22,5 km/h (4 Bft) 95,92 %
05.03.2019 16:34 10,5 C 11,7 C 9,4 C 66 % 1005,1 hPa 0,0 l/m 2 min 0 min 265 W/m 22,5 km/h (4 Bft) 95,74 %
05.03.2019 16:36 10,5 C 12,2 C 9,4 C 67 % 1005,1 hPa 0,0 l/m 2 min 0 min 269 W/m 9,7 km/h (2 Bft) 97,87 %
05.03.2019 16:38 10,5 C 12,2 C 9,4 C 67 % 1005,1 hPa 0,0 l/m 2 min 0 min 265 W/m 9,7 km/h (2 Bft) 97,87 %
05.03.2019 16:40 10,5 C 12,2 C 9,4 C 68 % 1005,2 hPa 0,0 l/m 2 min 0 min 190 W/m 9,7 km/h (2 Bft) 100,00 %
05.03.2019 16:42 10,5 C 12,2 C 9,4 C 68 % 1005,2 hPa 0,0 l/m 2 min 0 min 230 W/m 9,7 km/h (2 Bft) 100,00 %
05.03.2019 16:44 10,6 C 12,2 C 9,4 C 67 % 1005,1 hPa 0,0 l/m 2 min 0 min 203 W/m 9,7 km/h (2 Bft) 100,00 %
05.03.2019 16:46 10,6 C 12,2 C 9,4 C 68 % 1005,1 hPa 0,0 l/m 2 min 0 min 197 W/m 9,7 km/h (2 Bft) 97,96 %
05.03.2019 16:48 10,6 C 12,8 C 9,4 C 68 % 1005,2 hPa 0,0 l/m 2 min 0 min 222 W/m 16,1 km/h (3 Bft) 100,00 %
05.03.2019 16:50 10,6 C 12,2 C 9,4 C 67 % 1005,3 hPa 0,0 l/m 2 min 0 min 246 W/m 19,3 km/h (3 Bft) 100,00 %
05.03.2019 16:52 10,6 C 12,2 C 9,4 C 67 % 1005,4 hPa 0,0 l/m 2 min 0 min 244 W/m 16,1 km/h (3 Bft) 100,00 %
05.03.2019 16:54 10,7 C 12,2 C 9,4 C 67 % 1005,3 hPa 0,0 l/m 2 min 0 min 201 W/m 16,1 km/h (3 Bft) 100,00 %
05.03.2019 16:56 10,7 C 12,2 C 9,4 C 67 % 1005,4 hPa 0,0 l/m 2 min 0 min 178 W/m 16,1 km/h (3 Bft) 97,96 %
05.03.2019 16:58 10,7 C 11,7 C 9,4 C 67 % 1005,4 hPa 0,0 l/m 2 min 0 min 172 W/m 16,1 km/h (3 Bft) 100,00 %
05.03.2019 17:00 10,7 C 11,1 C 9,4 C 66 % 1005,4 hPa 0,0 l/m 2 min 0 min 108 W/m 12,9 km/h (3 Bft) 100,00 %
05.03.2019 17:02 10,7 C 11,1 C 8,9 C 67 % 1005,4 hPa 0,0 l/m 0 min 0 min 46 W/m 9,7 km/h (2 Bft) 100,00 %
05.03.2019 17:04 10,6 C 11,1 C 8,9 C 67 % 1005,4 hPa 0,0 l/m 0 min 0 min 48 W/m 12,9 km/h (3 Bft) 97,87 %
05.03.2019 17:06 10,6 C 11,1 C 8,9 C 66 % 1005,4 hPa 0,0 l/m 0 min 0 min 52 W/m 16,1 km/h (3 Bft) 97,87 %
05.03.2019 17:08 10,6 C 10,6 C 8,9 C 66 % 1005,4 hPa 0,0 l/m 0 min 0 min 51 W/m 9,7 km/h (2 Bft) 92,68 %
05.03.2019 17:10 10,5 C 10,0 C 8,9 C 66 % 1005,4 hPa 0,0 l/m 0 min 0 min 50 W/m 12,9 km/h (3 Bft) 97,96 %
05.03.2019 17:12 10,4 C 10,0 C 8,9 C 66 % 1005,4 hPa 0,0 l/m 0 min 0 min 54 W/m 12,9 km/h (3 Bft) 100,00 %
05.03.2019 17:14 10,4 C 10,0 C 8,9 C 67 % 1005,4 hPa 0,0 l/m 0 min 0 min 54 W/m 12,9 km/h (3 Bft) 97,92 %
05.03.2019 17:16 10,4 C 9,4 C 8,9 C 66 % 1005,4 hPa 0,0 l/m 0 min 0 min 55 W/m 19,3 km/h (3 Bft) 97,87 %
05.03.2019 17:18 10,3 C 9,4 C 8,9 C 67 % 1005,4 hPa 0,0 l/m 0 min 0 min 54 W/m 9,7 km/h (2 Bft) 97,87 %
05.03.2019 17:20 10,3 C 9,4 C 8,9 C 67 % 1005,4 hPa 0,0 l/m 0 min 0 min 48 W/m 22,5 km/h (4 Bft) 97,62 %
05.03.2019 17:22 10,2 C 9,4 C 8,9 C 66 % 1005,5 hPa 0,0 l/m 0 min 0 min 42 W/m 19,3 km/h (3 Bft) 98,00 %
05.03.2019 17:24 10,2 C 9,4 C 8,9 C 66 % 1005,5 hPa 0,0 l/m 0 min 0 min 38 W/m 19,3 km/h (3 Bft) 97,92 %
05.03.2019 17:26 10,1 C 9,4 C 8,9 C 66 % 1005,5 hPa 0,0 l/m 0 min 0 min 33 W/m 12,9 km/h (3 Bft) 97,87 %
05.03.2019 17:28 10,1 C 9,4 C 8,3 C 66 % 1005,4 hPa 0,0 l/m 0 min 0 min 29 W/m 12,9 km/h (3 Bft) 97,87 %
05.03.2019 17:30 10,0 C 9,4 C 8,3 C 66 % 1005,5 hPa 0,0 l/m 0 min 0 min 27 W/m 16,1 km/h (3 Bft) 95,12 %
05.03.2019 17:32 10,0 C 8,9 C 8,3 C 66 % 1005,6 hPa 0,0 l/m 0 min 0 min 25 W/m 9,7 km/h (2 Bft) 98,08 %
05.03.2019 17:34 9,9 C 8,9 C 8,3 C 67 % 1005,6 hPa 0,0 l/m 0 min 0 min 24 W/m 9,7 km/h (2 Bft) 97,83 %
05.03.2019 17:36 9,9 C 8,9 C 8,3 C 67 % 1005,6 hPa 0,0 l/m 0 min 0 min 20 W/m 16,1 km/h (3 Bft) 97,92 %
05.03.2019 17:38 9,9 C 8,9 C 8,3 C 67 % 1005,6 hPa 0,0 l/m 0 min 0 min 18 W/m 3,2 km/h (1 Bft) 97,87 %
05.03.2019 17:40 9,8 C 8,9 C 7,8 C 68 % 1005,6 hPa 0,0 l/m 0 min 0 min 15 W/m 12,9 km/h (3 Bft) 100,00 %
05.03.2019 17:42 9,8 C 8,9 C 7,8 C 68 % 1005,7 hPa 0,0 l/m 0 min 0 min 14 W/m 6,4 km/h (2 Bft) 97,83 %
05.03.2019 17:44 9,8 C 8,3 C 7,8 C 68 % 1005,7 hPa 0,0 l/m 0 min 0 min 12 W/m 9,7 km/h (2 Bft) 97,67 %
05.03.2019 17:46 9,7 C 8,3 C 7,8 C 68 % 1005,6 hPa 0,0 l/m 0 min 0 min 12 W/m 12,9 km/h (3 Bft) 97,92 %
05.03.2019 17:48 9,7 C 8,3 C 7,8 C 68 % 1005,6 hPa 0,0 l/m 0 min 0 min 12 W/m 9,7 km/h (2 Bft) 97,96 %
05.03.2019 17:50 9,6 C 8,3 C 7,8 C 68 % 1005,6 hPa 0,0 l/m 0 min 0 min 11 W/m 6,4 km/h (2 Bft) 91,67 %
05.03.2019 17:52 9,6 C 8,3 C 7,8 C 68 % 1005,7 hPa 0,0 l/m 0 min 0 min 10 W/m 3,2 km/h (1 Bft) 95,74 %
05.03.2019 17:54 9,6 C 8,3 C 7,8 C 69 % 1005,7 hPa 0,0 l/m 0 min 0 min 9 W/m 6,4 km/h (2 Bft) 97,56 %
05.03.2019 17:56 9,5 C 8,3 C 7,8 C 69 % 1005,8 hPa 0,0 l/m 0 min 0 min 9 W/m 12,9 km/h (3 Bft) 95,92 %
05.03.2019 17:58 9,4 C 8,3 C 7,8 C 69 % 1005,8 hPa 0,0 l/m 0 min 0 min 9 W/m 3,2 km/h (1 Bft) 97,96 %
05.03.2019 18:00 9,4 C 8,3 C 7,2 C 69 % 1005,9 hPa 0,0 l/m 0 min 0 min 9 W/m 6,4 km/h (2 Bft) 95,74 %
05.03.2019 18:02 9,3 C 8,3 C 7,2 C 69 % 1005,9 hPa 0,0 l/m 0 min 0 min 7 W/m 3,2 km/h (1 Bft) 95,74 %
05.03.2019 18:04 9,3 C 7,8 C 7,2 C 69 % 1005,8 hPa 0,0 l/m 0 min 0 min 7 W/m 3,2 km/h (1 Bft) 97,87 %
05.03.2019 18:07 9,2 C 8,3 C 7,8 C 69 % 1005,9 hPa 0,0 l/m 0 min 0 min 7 W/m 12,9 km/h (3 Bft) 98,33 %
05.03.2019 18:08 9,2 C 8,3 C 7,8 C 69 % 1005,9 hPa 0,0 l/m 0 min 0 min 6 W/m 16,1 km/h (3 Bft) 97,14 %
05.03.2019 18:10 9,2 C 8,3 C 7,8 C 69 % 1006,0 hPa 0,0 l/m 0 min 0 min 5 W/m 16,1 km/h (3 Bft) 95,74 %
05.03.2019 18:12 9,1 C 8,3 C 7,8 C 69 % 1006,0 hPa 0,0 l/m 0 min 0 min 5 W/m 16,1 km/h (3 Bft) 98,00 %
05.03.2019 18:14 9,1 C 8,3 C 7,8 C 69 % 1005,9 hPa 0,0 l/m 0 min 0 min 4 W/m 9,7 km/h (2 Bft) 97,87 %
05.03.2019 18:16 9,1 C 8,3 C 7,8 C 69 % 1006,0 hPa 0,0 l/m 0 min 0 min 0 W/m 12,9 km/h (3 Bft) 93,48 %
05.03.2019 18:18 9,0 C 7,8 C 7,2 C 69 % 1006,1 hPa 0,0 l/m 0 min 0 min 0 W/m 9,7 km/h (2 Bft) 95,24 %
05.03.2019 18:20 8,9 C 8,3 C 7,8 C 69 % 1006,1 hPa 0,0 l/m 0 min 0 min 0 W/m 12,9 km/h (3 Bft) 95,83 %
05.03.2019 18:22 8,9 C 7,8 C 7,8 C 69 % 1006,1 hPa 0,0 l/m 0 min 0 min 0 W/m 6,4 km/h (2 Bft) 96,00 %
05.03.2019 18:24 8,9 C 7,8 C 7,2 C 70 % 1006,1 hPa 0,0 l/m 0 min 0 min 0 W/m 3,2 km/h (1 Bft) 97,92 %
05.03.2019 18:26 8,9 C 7,8 C 7,2 C 70 % 1006,1 hPa 0,0 l/m 0 min 0 min 0 W/m 12,9 km/h (3 Bft) 95,74 %
05.03.2019 18:28 8,8 C 7,8 C 7,2 C 70 % 1006,1 hPa 0,0 l/m 0 min 0 min 0 W/m 12,9 km/h (3 Bft) 97,83 %
05.03.2019 18:30 8,8 C 7,8 C 7,2 C 70 % 1006,1 hPa 0,0 l/m 0 min 0 min 0 W/m 3,2 km/h (1 Bft) 95,35 %
05.03.2019 18:32 8,8 C 7,8 C 7,2 C 70 % 1006,2 hPa 0,0 l/m 0 min 0 min 0 W/m 19,3 km/h (3 Bft) 93,88 %
05.03.2019 18:34 8,8 C 7,8 C 7,2 C 70 % 1006,2 hPa 0,0 l/m 0 min 0 min 0 W/m 9,7 km/h (2 Bft) 93,62 %
05.03.2019 18:36 8,7 C 7,8 C 7,2 C 70 % 1006,3 hPa 0,0 l/m 0 min 0 min 0 W/m 12,9 km/h (3 Bft) 93,88 %
05.03.2019 18:38 8,7 C 7,8 C 7,2 C 70 % 1006,3 hPa 0,0 l/m 0 min 0 min 0 W/m 3,2 km/h (1 Bft) 95,83 %
05.03.2019 18:40 8,7 C 7,8 C 7,2 C 70 % 1006,4 hPa 0,0 l/m 0 min 0 min 0 W/m 9,7 km/h (2 Bft) 95,65 %
05.03.2019 18:42 8,7 C 7,8 C 7,2 C 70 % 1006,4 hPa 0,0 l/m 0 min 0 min 0 W/m 6,4 km/h (2 Bft) 95,74 %
05.03.2019 18:44 8,7 C 7,8 C 7,2 C 70 % 1006,5 hPa 0,0 l/m 0 min 0 min 0 W/m 9,7 km/h (2 Bft) 97,56 %
05.03.2019 18:46 8,6 C 7,2 C 6,7 C 70 % 1006,5 hPa 0,0 l/m 0 min 0 min 0 W/m 9,7 km/h (2 Bft) 97,96 %
05.03.2019 18:48 8,6 C 7,2 C 6,7 C 71 % 1006,6 hPa 0,0 l/m 0 min 0 min 0 W/m 3,2 km/h (1 Bft) 95,92 %
05.03.2019 18:50 8,6 C 7,2 C 6,7 C 71 % 1006,5 hPa 0,0 l/m 0 min 0 min 0 W/m 9,7 km/h (2 Bft) 95,92 %
05.03.2019 18:52 8,5 C 7,2 C 6,7 C 71 % 1006,5 hPa 0,0 l/m 0 min 0 min 0 W/m 16,1 km/h (3 Bft) 97,83 %
05.03.2019 18:54 8,5 C 7,2 C 6,7 C 71 % 1006,5 hPa 0,0 l/m 0 min 0 min 0 W/m 12,9 km/h (3 Bft) 97,87 %
05.03.2019 18:56 8,4 C 7,2 C 6,7 C 71 % 1006,6 hPa 0,0 l/m 0 min 0 min 0 W/m 6,4 km/h (2 Bft) 97,62 %
05.03.2019 18:58 8,4 C 7,2 C 6,7 C 72 % 1006,7 hPa 0,0 l/m 0 min 0 min 0 W/m 9,7 km/h (2 Bft) 98,00 %
05.03.2019 19:00 8,4 C 7,2 C 6,7 C 72 % 1006,6 hPa 0,0 l/m 0 min 0 min 0 W/m 9,7 km/h (2 Bft) 95,74 %
05.03.2019 19:02 8,3 C 7,2 C 6,7 C 73 % 1006,6 hPa 0,0 l/m 0 min 0 min 0 W/m 9,7 km/h (2 Bft) 93,88 %
05.03.2019 19:04 8,3 C 7,2 C 6,7 C 73 % 1006,7 hPa 0,0 l/m 0 min 0 min 0 W/m 12,9 km/h (3 Bft) 95,65 %
05.03.2019 19:06 8,3 C 7,2 C 6,7 C 73 % 1006,7 hPa 0,0 l/m 0 min 0 min 0 W/m 3,2 km/h (1 Bft) 95,74 %
05.03.2019 19:08 8,2 C 7,2 C 6,7 C 73 % 1006,7 hPa 0,0 l/m 0 min 0 min 0 W/m 9,7 km/h (2 Bft) 95,74 %
05.03.2019 19:10 8,2 C 7,2 C 6,7 C 74 % 1006,7 hPa 0,0 l/m 0 min 0 min 0 W/m 6,4 km/h (2 Bft) 100,00 %
05.03.2019 19:12 8,2 C 7,2 C 6,7 C 74 % 1006,7 hPa 0,0 l/m 0 min 0 min 0 W/m 16,1 km/h (3 Bft) 100,00 %
05.03.2019 19:14 8,1 C 7,2 C 6,7 C 74 % 1006,8 hPa 0,0 l/m 0 min 0 min 0 W/m 9,7 km/h (2 Bft) 100,00 %
05.03.2019 19:16 8,1 C 7,2 C 6,7 C 74 % 1006,8 hPa 0,0 l/m 0 min 0 min 0 W/m 6,4 km/h (2 Bft) 100,00 %
05.03.2019 19:18 8,1 C 7,2 C 6,7 C 74 % 1006,8 hPa 0,0 l/m 0 min 0 min 0 W/m 19,3 km/h (3 Bft) 100,00 %
05.03.2019 19:20 8,1 C 7,2 C 6,7 C 75 % 1006,9 hPa 0,0 l/m 0 min 0 min 0 W/m 12,9 km/h (3 Bft) 100,00 %
05.03.2019 19:22 8,0 C 7,2 C 6,7 C 75 % 1006,9 hPa 0,0 l/m 0 min 0 min 0 W/m 9,7 km/h (2 Bft) 96,00 %
05.03.2019 19:24 8,0 C 7,2 C 6,7 C 75 % 1007,0 hPa 0,0 l/m 0 min 0 min 0 W/m 3,2 km/h (1 Bft) 100,00 %
05.03.2019 19:26 7,9 C 7,2 C 6,7 C 75 % 1007,0 hPa 0,0 l/m 0 min 0 min 0 W/m 6,4 km/h (2 Bft) 100,00 %
05.03.2019 19:28 7,9 C 7,2 C 6,7 C 76 % 1007,0 hPa 0,0 l/m 0 min 0 min 0 W/m 9,7 km/h (2 Bft) 100,00 %
05.03.2019 19:30 7,9 C 7,2 C 6,7 C 76 % 1007,0 hPa 0,0 l/m 0 min 0 min 0 W/m 12,9 km/h (3 Bft) 100,00 %
05.03.2019 19:32 7,9 C 7,2 C 6,7 C 76 % 1007,0 hPa 0,0 l/m 0 min 0 min 0 W/m 12,9 km/h (3 Bft) 100,00 %
05.03.2019 19:34 7,9 C 7,2 C 6,7 C 76 % 1007,0 hPa 0,0 l/m 0 min 0 min 0 W/m 12,9 km/h (3 Bft) 100,00 %
05.03.2019 19:36 7,9 C 7,2 C 6,7 C 77 % 1007,1 hPa 0,0 l/m 0 min 0 min 0 W/m 22,5 km/h (4 Bft) 100,00 %
05.03.2019 19:38 7,8 C 7,2 C 6,7 C 77 % 1007,1 hPa 0,0 l/m 0 min 0 min 0 W/m 12,9 km/h (3 Bft) 100,00 %
05.03.2019 19:40 7,8 C 7,2 C 6,7 C 77 % 1007,1 hPa 0,0 l/m 0 min 0 min 0 W/m 12,9 km/h (3 Bft) 100,00 %
05.03.2019 19:42 7,8 C 7,2 C 6,7 C 77 % 1007,1 hPa 0,0 l/m 0 min 0 min 0 W/m 6,4 km/h (2 Bft) 100,00 %
05.03.2019 19:44 7,8 C 7,2 C 6,7 C 77 % 1007,1 hPa 0,0 l/m 0 min 0 min 0 W/m 12,9 km/h (3 Bft) 100,00 %
05.03.2019 19:46 7,8 C 7,2 C 6,7 C 77 % 1007,1 hPa 0,0 l/m 0 min 0 min 0 W/m 16,1 km/h (3 Bft) 97,96 %
05.03.2019 19:48 7,8 C 7,2 C 6,7 C 78 % 1007,1 hPa 0,0 l/m 0 min 0 min 0 W/m 12,9 km/h (3 Bft) 100,00 %
05.03.2019 19:50 7,8 C 7,2 C 6,7 C 78 % 1007,0 hPa 0,0 l/m 0 min 0 min 0 W/m 9,7 km/h (2 Bft) 100,00 %
05.03.2019 19:52 7,8 C 7,2 C 6,7 C 78 % 1007,1 hPa 0,0 l/m 0 min 0 min 0 W/m 6,4 km/h (2 Bft) 97,83 %
05.03.2019 19:54 7,8 C 6,7 C 6,7 C 78 % 1007,0 hPa 0,0 l/m 0 min 0 min 0 W/m 9,7 km/h (2 Bft) 100,00 %
05.03.2019 19:56 7,8 C 6,7 C 6,1 C 78 % 1007,0 hPa 0,0 l/m 0 min 0 min 0 W/m 9,7 km/h (2 Bft) 100,00 %
05.03.2019 19:58 7,7 C 6,7 C 6,1 C 78 % 1007,0 hPa 0,0 l/m 0 min 0 min 0 W/m 12,9 km/h (3 Bft) 100,00 %
05.03.2019 20:00 7,7 C 6,7 C 6,1 C 78 % 1007,0 hPa 0,0 l/m 0 min 0 min 0 W/m 9,7 km/h (2 Bft) 100,00 %
05.03.2019 20:02 7,7 C 6,7 C 6,1 C 78 % 1007,1 hPa 0,0 l/m 0 min 0 min 0 W/m 9,7 km/h (2 Bft) 100,00 %
05.03.2019 20:04 7,7 C 6,7 C 6,1 C 78 % 1007,1 hPa 0,0 l/m 0 min 0 min 0 W/m 12,9 km/h (3 Bft) 100,00 %
05.03.2019 20:06 7,7 C 6,7 C 6,1 C 78 % 1007,2 hPa 0,0 l/m 0 min 0 min 0 W/m 6,4 km/h (2 Bft) 100,00 %
05.03.2019 20:08 7,6 C 6,7 C 6,1 C 78 % 1007,1 hPa 0,0 l/m 0 min 0 min 0 W/m 12,9 km/h (3 Bft) 97,87 %
05.03.2019 20:10 7,6 C 6,7 C 6,1 C 78 % 1007,2 hPa 0,0 l/m 0 min 0 min 0 W/m 6,4 km/h (2 Bft) 100,00 %
05.03.2019 20:12 7,6 C 6,7 C 6,1 C 78 % 1007,2 hPa 0,0 l/m 0 min 0 min 0 W/m 9,7 km/h (2 Bft) 100,00 %
05.03.2019 20:14 7,6 C 6,7 C 6,1 C 79 % 1007,3 hPa 0,0 l/m 0 min 0 min 0 W/m 9,7 km/h (2 Bft) 95,74 %
05.03.2019 20:16 7,5 C 6,7 C 6,1 C 79 % 1007,3 hPa 0,0 l/m 0 min 0 min 0 W/m 9,7 km/h (2 Bft) 97,83 %
05.03.2019 20:18 7,5 C 6,7 C 6,1 C 79 % 1007,3 hPa 0,0 l/m 0 min 0 min 0 W/m 9,7 km/h (2 Bft) 100,00 %
05.03.2019 20:20 7,4 C 6,1 C 5,6 C 79 % 1007,3 hPa 0,0 l/m 0 min 0 min 0 W/m 0,0 km/h (0 Bft) 100,00 %
05.03.2019 20:22 7,4 C 6,1 C 5,6 C 79 % 1007,3 hPa 0,0 l/m 0 min 0 min 0 W/m 6,4 km/h (2 Bft) 97,87 %
05.03.2019 20:24 7,4 C 6,1 C 5,6 C 79 % 1007,3 hPa 0,0 l/m 0 min 0 min 0 W/m 6,4 km/h (2 Bft) 100,00 %
05.03.2019 20:26 7,4 C 6,1 C 5,6 C 79 % 1007,2 hPa 0,0 l/m 0 min 0 min 0 W/m 9,7 km/h (2 Bft) 97,87 %
05.03.2019 20:28 7,3 C 6,1 C 5,6 C 79 % 1007,3 hPa 0,0 l/m 0 min 0 min 0 W/m 9,7 km/h (2 Bft) 100,00 %
05.03.2019 20:30 7,3 C 6,1 C 5,6 C 79 % 1007,3 hPa 0,0 l/m 0 min 0 min 0 W/m 6,4 km/h (2 Bft) 100,00 %
05.03.2019 20:32 7,3 C 6,1 C 5,6 C 79 % 1007,3 hPa 0,0 l/m 0 min 0 min 0 W/m 6,4 km/h (2 Bft) 97,87 %
05.03.2019 20:34 7,2 C 6,1 C 5,6 C 80 % 1007,3 hPa 0,0 l/m 0 min 0 min 0 W/m 9,7 km/h (2 Bft) 100,00 %
05.03.2019 20:36 7,2 C 6,1 C 5,6 C 80 % 1007,3 hPa 0,0 l/m 0 min 0 min 0 W/m 6,4 km/h (2 Bft) 97,87 %
05.03.2019 20:38 7,2 C 6,1 C 5,6 C 80 % 1007,2 hPa 0,0 l/m 0 min 0 min 0 W/m 3,2 km/h (1 Bft) 97,87 %
05.03.2019 20:40 7,1 C 6,1 C 5,6 C 80 % 1007,3 hPa 0,0 l/m 0 min 0 min 0 W/m 12,9 km/h (3 Bft) 100,00 %
05.03.2019 20:42 7,1 C 6,1 C 5,6 C 80 % 1007,3 hPa 0,0 l/m 0 min 0 min 0 W/m 12,9 km/h (3 Bft) 100,00 %
05.03.2019 20:44 7,1 C 6,1 C 5,6 C 80 % 1007,4 hPa 0,0 l/m 0 min 0 min 0 W/m 12,9 km/h (3 Bft) 100,00 %
05.03.2019 20:46 7,0 C 6,1 C 5,6 C 80 % 1007,3 hPa 0,0 l/m 0 min 0 min 0 W/m 3,2 km/h (1 Bft) 100,00 %
05.03.2019 20:48 7,0 C 6,1 C 5,0 C 80 % 1007,4 hPa 0,0 l/m 0 min 0 min 0 W/m 0,0 km/h (0 Bft) 97,87 %
05.03.2019 20:50 6,9 C 5,6 C 5,0 C 80 % 1007,3 hPa 0,0 l/m 0 min 0 min 0 W/m 3,2 km/h (1 Bft) 95,74 %
05.03.2019 20:52 6,9 C 5,6 C 5,0 C 80 % 1007,3 hPa 0,0 l/m 0 min 0 min 0 W/m 6,4 km/h (2 Bft) 95,65 %
05.03.2019 20:54 6,9 C 5,6 C 5,0 C 81 % 1007,3 hPa 0,0 l/m 0 min 0 min 0 W/m 6,4 km/h (2 Bft) 93,62 %
05.03.2019 20:56 6,9 C 5,6 C 5,0 C 80 % 1007,2 hPa 0,0 l/m 0 min 0 min 0 W/m 6,4 km/h (2 Bft) 93,62 %
05.03.2019 20:58 6,8 C 5,6 C 5,0 C 81 % 1007,2 hPa 0,0 l/m 0 min 0 min 0 W/m 3,2 km/h (1 Bft) 91,49 %
05.03.2019 21:00 6,8 C 5,6 C 5,0 C 81 % 1007,3 hPa 0,0 l/m 0 min 0 min 0 W/m 3,2 km/h (1 Bft) 93,62 %
05.03.2019 21:02 6,8 C 5,6 C 5,0 C 81 % 1007,3 hPa 0,0 l/m 0 min 0 min 0 W/m 6,4 km/h (2 Bft) 91,49 %
05.03.2019 21:04 6,7 C 5,6 C 5,0 C 81 % 1007,4 hPa 0,0 l/m 0 min 0 min 0 W/m 6,4 km/h (2 Bft) 93,48 %
05.03.2019 21:06 6,7 C 5,6 C 5,0 C 81 % 1007,3 hPa 0,0 l/m 0 min 0 min 0 W/m 6,4 km/h (2 Bft) 91,49 %
05.03.2019 21:08 6,7 C 5,6 C 5,0 C 81 % 1007,3 hPa 0,0 l/m 0 min 0 min 0 W/m 3,2 km/h (1 Bft) 95,74 %
05.03.2019 21:10 6,6 C 5,6 C 5,0 C 81 % 1007,3 hPa 0,0 l/m 0 min 0 min 0 W/m 6,4 km/h (2 Bft) 91,49 %
05.03.2019 21:12 6,6 C 5,6 C 5,0 C 81 % 1007,3 hPa 0,0 l/m 0 min 0 min 0 W/m 6,4 km/h (2 Bft) 91,49 %
05.03.2019 21:14 6,6 C 5,6 C 5,0 C 81 % 1007,3 hPa 0,0 l/m 0 min 0 min 0 W/m 6,4 km/h (2 Bft) 91,30 %
05.03.2019 21:16 6,5 C 5,6 C 5,0 C 81 % 1007,3 hPa 0,0 l/m 0 min 0 min 0 W/m 6,4 km/h (2 Bft) 93,62 %
05.03.2019 21:18 6,5 C 5,6 C 4,4 C 81 % 1007,3 hPa 0,0 l/m 0 min 0 min 0 W/m 9,7 km/h (2 Bft) 93,62 %
05.03.2019 21:20 6,4 C 5,6 C 4,4 C 82 % 1007,3 hPa 0,0 l/m 0 min 0 min 0 W/m 9,7 km/h (2 Bft) 91,49 %
05.03.2019 21:22 6,4 C 5,6 C 4,4 C 82 % 1007,3 hPa 0,0 l/m 0 min 0 min 0 W/m 6,4 km/h (2 Bft) 93,62 %
05.03.2019 21:24 6,4 C 5,0 C 4,4 C 82 % 1007,3 hPa 0,0 l/m 0 min 0 min 0 W/m 9,7 km/h (2 Bft) 95,74 %
05.03.2019 21:26 6,4 C 5,0 C 4,4 C 82 % 1007,3 hPa 0,0 l/m 0 min 0 min 0 W/m 6,4 km/h (2 Bft) 95,65 %
05.03.2019 21:28 6,3 C 5,0 C 4,4 C 82 % 1007,3 hPa 0,0 l/m 0 min 0 min 0 W/m 9,7 km/h (2 Bft) 93,62 %
05.03.2019 21:30 6,3 C 5,0 C 4,4 C 82 % 1007,4 hPa 0,0 l/m 0 min 0 min 0 W/m 9,7 km/h (2 Bft) 95,74 %
05.03.2019 21:32 6,2 C 5,0 C 4,4 C 82 % 1007,3 hPa 0,0 l/m 0 min 0 min 0 W/m 3,2 km/h (1 Bft) 97,87 %
05.03.2019 21:34 6,2 C 5,0 C 4,4 C 82 % 1007,3 hPa 0,0 l/m 0 min 0 min 0 W/m 3,2 km/h (1 Bft) 97,87 %
05.03.2019 21:36 6,2 C 5,0 C 4,4 C 82 % 1007,3 hPa 0,0 l/m 0 min 0 min 0 W/m 9,7 km/h (2 Bft) 95,74 %
05.03.2019 21:38 6,1 C 5,0 C 4,4 C 82 % 1007,3 hPa 0,0 l/m 0 min 0 min 0 W/m 9,7 km/h (2 Bft) 95,65 %
05.03.2019 21:40 6,1 C 5,0 C 4,4 C 82 % 1007,3 hPa 0,0 l/m 0 min 0 min 0 W/m 6,4 km/h (2 Bft) 94,44 %
05.03.2019 21:42 6,1 C 5,0 C 4,4 C 82 % 1007,3 hPa 0,0 l/m 0 min 0 min 0 W/m 6,4 km/h (2 Bft) 95,65 %
05.03.2019 21:44 6,0 C 5,0 C 4,4 C 83 % 1007,3 hPa 0,0 l/m 0 min 0 min 0 W/m 6,4 km/h (2 Bft) 95,74 %
05.03.2019 21:46 6,0 C 5,0 C 4,4 C 83 % 1007,3 hPa 0,0 l/m 0 min 0 min 0 W/m 6,4 km/h (2 Bft) 93,62 %
05.03.2019 21:48 5,9 C 5,0 C 4,4 C 83 % 1007,3 hPa 0,0 l/m 0 min 0 min 0 W/m 9,7 km/h (2 Bft) 97,87 %
05.03.2019 21:50 5,9 C 5,0 C 4,4 C 83 % 1007,3 hPa 0,0 l/m 0 min 0 min 0 W/m 9,7 km/h (2 Bft) 97,87 %
05.03.2019 21:52 5,9 C 5,0 C 4,4 C 83 % 1007,3 hPa 0,0 l/m 0 min 0 min 0 W/m 3,2 km/h (1 Bft) 97,87 %
05.03.2019 21:54 5,9 C 5,0 C 4,4 C 83 % 1007,3 hPa 0,0 l/m 0 min 0 min 0 W/m 9,7 km/h (2 Bft) 97,83 %
05.03.2019 21:56 5,8 C 5,0 C 4,4 C 83 % 1007,3 hPa 0,0 l/m 0 min 0 min 0 W/m 9,7 km/h (2 Bft) 97,87 %
05.03.2019 21:58 5,8 C 5,0 C 4,4 C 83 % 1007,3 hPa 0,0 l/m 0 min 0 min 0 W/m 6,4 km/h (2 Bft) 97,87 %
05.03.2019 22:00 5,8 C 5,0 C 4,4 C 83 % 1007,3 hPa 0,0 l/m 0 min 0 min 0 W/m 6,4 km/h (2 Bft) 95,74 %
05.03.2019 22:02 5,8 C 5,0 C 4,4 C 83 % 1007,2 hPa 0,0 l/m 0 min 0 min 0 W/m 12,9 km/h (3 Bft) 97,87 %
05.03.2019 22:04 5,7 C 5,0 C 4,4 C 83 % 1007,2 hPa 0,0 l/m 0 min 0 min 0 W/m 9,7 km/h (2 Bft) 97,87 %
05.03.2019 22:06 5,7 C 5,0 C 4,4 C 84 % 1007,1 hPa 0,0 l/m 0 min 0 min 0 W/m 6,4 km/h (2 Bft) 96,55 %
05.03.2019 22:08 5,7 C 5,0 C 4,4 C 84 % 1007,2 hPa 0,0 l/m 0 min 0 min 0 W/m 3,2 km/h (1 Bft) 100,00 %
05.03.2019 22:10 5,7 C 5,0 C 4,4 C 84 % 1007,2 hPa 0,0 l/m 0 min 0 min 0 W/m 6,4 km/h (2 Bft) 100,00 %
05.03.2019 22:12 5,7 C 5,0 C 4,4 C 84 % 1007,2 hPa 0,0 l/m 0 min 0 min 0 W/m 9,7 km/h (2 Bft) 95,74 %
05.03.2019 22:14 5,7 C 5,0 C 3,9 C 84 % 1007,3 hPa 0,0 l/m 0 min 0 min 0 W/m 6,4 km/h (2 Bft) 97,87 %
05.03.2019 22:16 5,7 C 5,0 C 3,9 C 84 % 1007,2 hPa 0,0 l/m 0 min 0 min 0 W/m 3,2 km/h (1 Bft) 97,83 %
05.03.2019 22:18 5,6 C 5,0 C 3,9 C 84 % 1007,3 hPa 0,0 l/m 0 min 0 min 0 W/m 6,4 km/h (2 Bft) 97,87 %
05.03.2019 22:20 5,6 C 5,0 C 3,9 C 84 % 1007,3 hPa 0,0 l/m 0 min 0 min 0 W/m 9,7 km/h (2 Bft) 100,00 %
05.03.2019 22:22 5,6 C 5,0 C 3,9 C 84 % 1007,3 hPa 0,0 l/m 0 min 0 min 0 W/m 6,4 km/h (2 Bft) 100,00 %
05.03.2019 22:24 5,6 C 5,0 C 3,9 C 84 % 1007,3 hPa 0,0 l/m 0 min 0 min 0 W/m 9,7 km/h (2 Bft) 100,00 %
05.03.2019 22:26 5,6 C 5,0 C 3,9 C 84 % 1007,4 hPa 0,0 l/m 0 min 0 min 0 W/m 6,4 km/h (2 Bft) 97,87 %
05.03.2019 22:28 5,6 C 5,0 C 3,9 C 85 % 1007,3 hPa 0,0 l/m 0 min 0 min 0 W/m 6,4 km/h (2 Bft) 100,00 %
05.03.2019 22:30 5,5 C 5,0 C 3,9 C 85 % 1007,3 hPa 0,0 l/m 0 min 0 min 0 W/m 9,7 km/h (2 Bft) 100,00 %
05.03.2019 22:32 5,5 C 4,4 C 3,9 C 85 % 1007,3 hPa 0,0 l/m 0 min 0 min 0 W/m 6,4 km/h (2 Bft) 100,00 %
05.03.2019 22:34 5,5 C 4,4 C 3,9 C 85 % 1007,3 hPa 0,0 l/m 0 min 0 min 0 W/m 6,4 km/h (2 Bft) 97,87 %
05.03.2019 22:36 5,4 C 4,4 C 3,9 C 85 % 1007,3 hPa 0,0 l/m 0 min 0 min 0 W/m 9,7 km/h (2 Bft) 98,28 %
05.03.2019 22:38 5,4 C 5,0 C 3,9 C 85 % 1007,3 hPa 0,0 l/m 0 min 0 min 0 W/m 9,7 km/h (2 Bft) 100,00 %
05.03.2019 22:40 5,4 C 5,0 C 3,9 C 85 % 1007,3 hPa 0,0 l/m 0 min 0 min 0 W/m 9,7 km/h (2 Bft) 100,00 %
05.03.2019 22:42 5,4 C 5,0 C 3,9 C 85 % 1007,3 hPa 0,0 l/m 0 min 0 min 0 W/m 6,4 km/h (2 Bft) 97,87 %
05.03.2019 22:44 5,4 C 5,0 C 4,4 C 85 % 1007,3 hPa 0,0 l/m 0 min 0 min 0 W/m 9,7 km/h (2 Bft) 100,00 %
05.03.2019 22:46 5,4 C 5,0 C 4,4 C 86 % 1007,3 hPa 0,0 l/m 0 min 0 min 0 W/m 9,7 km/h (2 Bft) 95,74 %
05.03.2019 22:48 5,4 C 5,0 C 4,4 C 86 % 1007,2 hPa 0,0 l/m 0 min 0 min 0 W/m 6,4 km/h (2 Bft) 97,87 %
05.03.2019 22:50 5,4 C 5,0 C 4,4 C 86 % 1007,2 hPa 0,0 l/m 0 min 0 min 0 W/m 9,7 km/h (2 Bft) 100,00 %
05.03.2019 22:52 5,4 C 5,0 C 4,4 C 86 % 1007,2 hPa 0,0 l/m 0 min 0 min 0 W/m 12,9 km/h (3 Bft) 97,83 %
05.03.2019 22:54 5,4 C 5,0 C 4,4 C 86 % 1007,2 hPa 0,0 l/m 0 min 0 min 0 W/m 9,7 km/h (2 Bft) 100,00 %
05.03.2019 22:56 5,4 C 5,0 C 4,4 C 86 % 1007,2 hPa 0,0 l/m 0 min 0 min 0 W/m 16,1 km/h (3 Bft) 97,87 %
05.03.2019 22:58 5,4 C 5,0 C 4,4 C 86 % 1007,2 hPa 0,0 l/m 0 min 0 min 0 W/m 12,9 km/h (3 Bft) 97,87 %
05.03.2019 23:00 5,4 C 5,0 C 4,4 C 86 % 1007,1 hPa 0,0 l/m 0 min 0 min 0 W/m 9,7 km/h (2 Bft) 97,87 %
05.03.2019 23:02 5,4 C 5,0 C 4,4 C 86 % 1007,2 hPa 0,0 l/m 0 min 0 min 0 W/m 9,7 km/h (2 Bft) 97,87 %
05.03.2019 23:04 5,5 C 5,0 C 4,4 C 86 % 1007,2 hPa 0,0 l/m 0 min 0 min 0 W/m 6,4 km/h (2 Bft) 97,83 %
05.03.2019 23:06 5,5 C 5,0 C 4,4 C 87 % 1007,1 hPa 0,0 l/m 0 min 0 min 0 W/m 6,4 km/h (2 Bft) 94,92 %
05.03.2019 23:08 5,5 C 5,0 C 4,4 C 87 % 1007,1 hPa 0,0 l/m 0 min 0 min 0 W/m 9,7 km/h (2 Bft) 97,87 %
05.03.2019 23:10 5,5 C 5,0 C 4,4 C 87 % 1007,1 hPa 0,0 l/m 0 min 0 min 0 W/m 6,4 km/h (2 Bft) 100,00 %
05.03.2019 23:12 5,5 C 5,0 C 4,4 C 87 % 1007,1 hPa 0,0 l/m 0 min 0 min 0 W/m 12,9 km/h (3 Bft) 95,74 %
05.03.2019 23:14 5,5 C 5,0 C 4,4 C 86 % 1007,0 hPa 0,0 l/m 0 min 0 min 0 W/m 9,7 km/h (2 Bft) 95,74 %
05.03.2019 23:16 5,5 C 5,0 C 4,4 C 87 % 1007,1 hPa 0,0 l/m 0 min 0 min 0 W/m 12,9 km/h (3 Bft) 97,83 %
05.03.2019 23:18 5,5 C 5,0 C 4,4 C 87 % 1007,1 hPa 0,0 l/m 0 min 0 min 0 W/m 9,7 km/h (2 Bft) 97,87 %
05.03.2019 23:20 5,5 C 5,0 C 4,4 C 87 % 1007,1 hPa 0,0 l/m 0 min 0 min 0 W/m 6,4 km/h (2 Bft) 97,87 %
05.03.2019 23:22 5,6 C 5,0 C 4,4 C 87 % 1007,1 hPa 0,0 l/m 0 min 0 min 0 W/m 19,3 km/h (3 Bft) 93,62 %
05.03.2019 23:24 5,6 C 5,0 C 4,4 C 87 % 1007,1 hPa 0,0 l/m 0 min 0 min 0 W/m 12,9 km/h (3 Bft) 97,87 %
05.03.2019 23:26 5,6 C 5,0 C 4,4 C 87 % 1007,0 hPa 0,0 l/m 0 min 0 min 0 W/m 9,7 km/h (2 Bft) 95,65 %
05.03.2019 23:28 5,6 C 5,0 C 4,4 C 87 % 1007,1 hPa 0,0 l/m 0 min 0 min 0 W/m 9,7 km/h (2 Bft) 97,87 %
05.03.2019 23:30 5,5 C 5,0 C 4,4 C 87 % 1007,1 hPa 0,0 l/m 0 min 0 min 0 W/m 6,4 km/h (2 Bft) 95,74 %
05.03.2019 23:32 5,5 C 5,0 C 4,4 C 87 % 1007,0 hPa 0,0 l/m 0 min 0 min 0 W/m 12,9 km/h (3 Bft) 97,87 %
05.03.2019 23:34 5,5 C 5,0 C 4,4 C 87 % 1007,1 hPa 0,0 l/m 0 min 0 min 0 W/m 6,4 km/h (2 Bft) 97,87 %
05.03.2019 23:36 5,5 C 5,0 C 4,4 C 87 % 1007,0 hPa 0,0 l/m 0 min 0 min 0 W/m 9,7 km/h (2 Bft) 96,55 %
05.03.2019 23:38 5,5 C 5,0 C 4,4 C 87 % 1007,0 hPa 0,0 l/m 0 min 0 min 0 W/m 9,7 km/h (2 Bft) 97,87 %
05.03.2019 23:40 5,5 C 5,0 C 4,4 C 87 % 1007,0 hPa 0,0 l/m 0 min 0 min 0 W/m 9,7 km/h (2 Bft) 97,14 %
05.03.2019 23:42 5,5 C 5,0 C 4,4 C 87 % 1006,9 hPa 0,0 l/m 0 min 0 min 0 W/m 3,2 km/h (1 Bft) 100,00 %
05.03.2019 23:44 5,5 C 5,0 C 4,4 C 87 % 1006,9 hPa 0,0 l/m 0 min 0 min 0 W/m 9,7 km/h (2 Bft) 100,00 %
05.03.2019 23:46 5,6 C 5,0 C 4,4 C 87 % 1006,9 hPa 0,0 l/m 0 min 0 min 0 W/m 9,7 km/h (2 Bft) 95,74 %
05.03.2019 23:48 5,6 C 5,0 C 4,4 C 87 % 1006,8 hPa 0,0 l/m 0 min 0 min 0 W/m 3,2 km/h (1 Bft) 100,00 %
05.03.2019 23:50 5,6 C 5,0 C 4,4 C 87 % 1006,9 hPa 0,0 l/m 0 min 0 min 0 W/m 6,4 km/h (2 Bft) 97,83 %
05.03.2019 23:52 5,6 C 5,0 C 4,4 C 87 % 1007,0 hPa 0,0 l/m 0 min 0 min 0 W/m 9,7 km/h (2 Bft) 97,87 %
05.03.2019 23:54 5,6 C 5,0 C 4,4 C 87 % 1006,9 hPa 0,0 l/m 0 min 0 min 0 W/m 6,4 km/h (2 Bft) 97,87 %
05.03.2019 23:56 5,6 C 5,0 C 4,4 C 87 % 1006,9 hPa 0,0 l/m 0 min 0 min 0 W/m 6,4 km/h (2 Bft) 97,87 %
05.03.2019 23:58 5,6 C 5,0 C 4,4 C 87 % 1006,9 hPa 0,0 l/m 0 min 0 min 0 W/m 9,7 km/h (2 Bft) 97,87 %
_ Min-Zeit 08:28 07:50 07:52 16:24 00:00 - - - - 20:20 03:00
Minimum _ 4,3 C 3,3 C 2,8 C 66 % 999,7 hPa - - - - 0,0 km/h (0 Bft) 89,36 %
_ Max-Zeit 15:36 14:18 13:34 08:56 20:44 08:08 10:28 02:20 13:46 05:24 00:58
Maximum _ 11,0 C 16,7 C 13,3 C 92 % 1007,4 hPa 0,2 l/m 2 min 2 min 722 W/m 48,3 km/h
S-SO (6 Bft)
100,00 %
Durchschnitt _ 7,0 C 7,0 C 6,0 C 81 % 1003,5 hPa #0,2 l/m #3:14 h #2:38 h 195 W/m 16,9 km/h (3 Bft) 97,42 %
© 2019 W. Hausmann